Time,TemperatureF,DewpointF,PressureIn,WindDirection,WindDirectionDegrees,WindSpeedMPH,WindSpeedGustMPH,Humidity,HourlyPrecipIn,Conditions,Clouds,dailyrainin,SoftwareType,DateUTC
2013-05-24 00:01:00,68.1,58.3,30.10,North,11,1.0,4.0,71,0.00,,---,0.00,VWS V14.01,2013-05-24 05:01:00,
2013-05-24 00:02:00,68.1,58.3,30.10,North,8,1.0,4.0,71,0.00,,---,0.00,VWS V14.01,2013-05-24 05:02:00,
2013-05-24 00:03:00,68.1,58.3,30.10,NE,49,4.0,6.0,71,0.00,,---,0.00,VWS V14.01,2013-05-24 05:03:00,
2013-05-24 00:06:00,68.2,58.5,30.10,East,98,1.0,6.0,71,0.00,,---,0.00,VWS V14.01,2013-05-24 05:06:00,
2013-05-24 00:07:00,68.1,58.3,30.10,North,352,1.0,6.0,71,0.00,,---,0.00,VWS V14.01,2013-05-24 05:07:00,
2013-05-24 00:08:00,68.1,58.3,30.10,East,80,5.0,7.0,71,0.00,,---,0.00,VWS V14.01,2013-05-24 05:08:00,
2013-05-24 00:11:00,68.1,58.3,30.10,North,11,1.0,7.0,71,0.00,,---,0.00,VWS V14.01,2013-05-24 05:11:00,
2013-05-24 00:12:00,68.1,58.3,30.10,North,10,1.0,7.0,71,0.00,,---,0.00,VWS V14.01,2013-05-24 05:12:00,
2013-05-24 00:13:00,68.1,58.3,30.10,East,86,4.0,7.0,71,0.00,,---,0.00,VWS V14.01,2013-05-24 05:13:00,
2013-05-24 00:16:00,68.0,58.3,30.11,East,84,9.0,9.0,71,0.00,,---,0.00,VWS V14.01,2013-05-24 05:16:00,
2013-05-24 00:17:00,68.0,58.3,30.10,ENE,69,2.0,9.0,71,0.00,,---,0.00,VWS V14.01,2013-05-24 05:17:00,
2013-05-24 00:18:00,68.0,58.3,30.10,ENE,59,1.0,9.0,71,0.00,,---,0.00,VWS V14.01,2013-05-24 05:18:00,
2013-05-24 00:22:00,67.9,58.2,30.11,NNE,20,1.0,9.0,71,0.00,,---,0.00,VWS V14.01,2013-05-24 05:22:00,
2013-05-24 00:23:00,67.9,58.5,30.11,North,353,1.0,9.0,72,0.00,,---,0.00,VWS V14.01,2013-05-24 05:23:00,
2013-05-24 00:27:00,67.7,58.4,30.11,North,359,1.0,9.0,72,0.00,,---,0.00,VWS V14.01,2013-05-24 05:27:00,
2013-05-24 00:28:00,67.6,58.3,30.11,SSE,167,2.0,9.0,72,0.00,,---,0.00,VWS V14.01,2013-05-24 05:28:00,
2013-05-24 00:29:00,67.6,58.3,30.11,SSE,164,3.0,9.0,72,0.00,,---,0.00,VWS V14.01,2013-05-24 05:29:00,
2013-05-24 00:32:00,67.5,58.2,30.11,NNW,342,1.0,2.0,72,0.00,,---,0.00,VWS V14.01,2013-05-24 05:32:00,
2013-05-24 00:33:00,67.5,58.2,30.11,NNW,342,1.0,2.0,72,0.00,,---,0.00,VWS V14.01,2013-05-24 05:33:00,
2013-05-24 00:34:00,67.4,58.1,30.11,East,83,2.0,4.0,72,0.00,,---,0.00,VWS V14.01,2013-05-24 05:34:00,
2013-05-24 00:37:00,67.3,58.4,30.11,ENE,70,1.0,4.0,73,0.00,,---,0.00,VWS V14.01,2013-05-24 05:37:00,
2013-05-24 00:38:00,67.3,58.4,30.11,ENE,60,1.0,4.0,73,0.00,,---,0.00,VWS V14.01,2013-05-24 05:38:00,
2013-05-24 00:39:00,67.3,58.4,30.11,NE,53,1.0,4.0,73,0.00,,---,0.00,VWS V14.01,2013-05-24 05:39:00,
2013-05-24 00:42:00,67.2,58.3,30.11,North,350,1.0,4.0,73,0.00,,---,0.00,VWS V14.01,2013-05-24 05:42:00,
2013-05-24 00:43:00,67.1,58.2,30.11,NNW,342,1.0,4.0,73,0.00,,---,0.00,VWS V14.01,2013-05-24 05:43:00,
2013-05-24 00:44:00,67.1,58.2,30.11,NNW,342,0.0,4.0,73,0.00,,---,0.00,VWS V14.01,2013-05-24 05:44:00,
2013-05-24 00:47:00,67.0,58.5,30.11,ENE,67,3.0,3.0,74,0.00,,---,0.00,VWS V14.01,2013-05-24 05:47:00,
2013-05-24 00:48:00,67.0,58.5,30.11,ENE,66,1.0,3.0,74,0.00,,---,0.00,VWS V14.01,2013-05-24 05:48:00,
2013-05-24 00:49:00,66.9,58.3,30.11,NNW,347,2.0,3.0,74,0.00,,---,0.00,VWS V14.01,2013-05-24 05:49:00,
2013-05-24 00:53:00,66.8,58.3,30.11,North,353,0.0,3.0,74,0.00,,---,0.00,VWS V14.01,2013-05-24 05:53:00,
2013-05-24 00:54:00,66.8,58.3,30.11,North,354,3.0,3.0,74,0.00,,---,0.00,VWS V14.01,2013-05-24 05:54:00,
2013-05-24 00:58:00,66.7,58.5,30.11,North,352,2.0,3.0,75,0.00,,---,0.00,VWS V14.01,2013-05-24 05:58:00,
2013-05-24 00:59:00,66.7,58.5,30.11,North,354,1.0,3.0,75,0.00,,---,0.00,VWS V14.01,2013-05-24 05:59:00,
2013-05-24 01:03:00,66.6,58.4,30.11,North,353,1.0,3.0,75,0.00,,---,0.00,VWS V14.01,2013-05-24 06:03:00,
2013-05-24 01:04:00,66.5,58.3,30.11,North,356,1.0,3.0,75,0.00,,---,0.00,VWS V14.01,2013-05-24 06:04:00,
2013-05-24 01:08:00,66.4,58.2,30.11,East,91,4.0,6.0,75,0.00,,---,0.00,VWS V14.01,2013-05-24 06:08:00,
2013-05-24 01:09:00,66.4,58.2,30.11,East,91,1.0,6.0,75,0.00,,---,0.00,VWS V14.01,2013-05-24 06:09:00,
2013-05-24 01:13:00,66.3,58.5,30.11,NNW,328,0.0,6.0,76,0.00,,---,0.00,VWS V14.01,2013-05-24 06:13:00,
2013-05-24 01:14:00,66.2,58.4,30.11,NE,56,2.0,6.0,76,0.00,,---,0.00,VWS V14.01,2013-05-24 06:14:00,
2013-05-24 01:15:00,66.2,58.4,30.11,North,356,5.0,6.0,76,0.00,,---,0.00,VWS V14.01,2013-05-24 06:15:00,
2013-05-24 01:18:00,66.1,58.3,30.11,ESE,122,0.0,4.0,76,0.00,,---,0.00,VWS V14.01,2013-05-24 06:18:00,
2013-05-24 01:19:00,66.0,58.2,30.11,NNW,339,2.0,4.0,76,0.00,,---,0.00,VWS V14.01,2013-05-24 06:19:00,
2013-05-24 01:20:00,66.0,58.2,30.11,NNE,24,2.0,4.0,76,0.00,,---,0.00,VWS V14.01,2013-05-24 06:20:00,
2013-05-24 01:23:00,65.9,58.1,30.11,East,91,1.0,4.0,76,0.00,,---,0.00,VWS V14.01,2013-05-24 06:23:00,
2013-05-24 01:24:00,65.9,58.1,30.11,East,91,1.0,4.0,76,0.00,,---,0.00,VWS V14.01,2013-05-24 06:24:00,
2013-05-24 01:25:00,65.9,58.1,30.11,East,90,1.0,4.0,76,0.00,,---,0.00,VWS V14.01,2013-05-24 06:25:00,
2013-05-24 01:29:00,65.7,58.3,30.11,ENE,77,4.0,4.0,77,0.00,,---,0.00,VWS V14.01,2013-05-24 06:29:00,
2013-05-24 01:30:00,65.7,58.3,30.11,ENE,63,0.0,4.0,77,0.00,,---,0.00,VWS V14.01,2013-05-24 06:30:00,
2013-05-24 01:34:00,65.5,58.1,30.11,SE,146,1.0,3.0,77,0.00,,---,0.00,VWS V14.01,2013-05-24 06:34:00,
2013-05-24 01:35:00,65.5,58.1,30.11,SSE,148,0.0,3.0,77,0.00,,---,0.00,VWS V14.01,2013-05-24 06:35:00,
2013-05-24 01:39:00,65.3,58.3,30.11,East,86,1.0,3.0,78,0.00,,---,0.00,VWS V14.01,2013-05-24 06:39:00,
2013-05-24 01:40:00,65.3,58.3,30.11,NNW,347,0.0,3.0,78,0.00,,---,0.00,VWS V14.01,2013-05-24 06:40:00,
2013-05-24 01:44:00,65.1,58.1,30.11,East,82,4.0,4.0,78,0.00,,---,0.00,VWS V14.01,2013-05-24 06:44:00,
2013-05-24 01:45:00,65.1,58.1,30.11,SSW,195,3.0,4.0,78,0.00,,---,0.00,VWS V14.01,2013-05-24 06:45:00,
2013-05-24 01:49:00,65.0,58.0,30.11,North,8,1.0,5.0,78,0.00,,---,0.00,VWS V14.01,2013-05-24 06:49:00,
2013-05-24 01:50:00,65.0,58.0,30.11,NNW,337,2.0,5.0,78,0.00,,---,0.00,VWS V14.01,2013-05-24 06:50:00,
2013-05-24 01:51:00,65.0,58.0,30.11,North,3,1.0,5.0,78,0.00,,---,0.00,VWS V14.01,2013-05-24 06:51:00,
2013-05-24 01:55:00,65.0,58.3,30.11,North,8,0.0,5.0,79,0.00,,---,0.00,VWS V14.01,2013-05-24 06:55:00,
2013-05-24 01:56:00,64.9,58.2,30.11,NNW,347,2.0,5.0,79,0.00,,---,0.00,VWS V14.01,2013-05-24 06:56:00,
2013-05-24 02:00:00,64.8,58.1,30.11,North,4,1.0,5.0,79,0.00,,---,0.00,VWS V14.01,2013-05-24 07:00:00,
2013-05-24 02:01:00,64.8,58.1,30.11,NNW,342,2.0,3.0,79,0.00,,---,0.00,VWS V14.01,2013-05-24 07:01:00,
2013-05-24 02:05:00,64.7,58.0,30.11,ENE,58,2.0,5.0,79,0.00,,---,0.00,VWS V14.01,2013-05-24 07:05:00,
2013-05-24 02:06:00,64.7,58.0,30.11,ESE,105,3.0,5.0,79,0.00,,---,0.00,VWS V14.01,2013-05-24 07:06:00,
2013-05-24 02:10:00,64.6,58.0,30.12,NNW,347,1.0,5.0,79,0.00,,---,0.00,VWS V14.01,2013-05-24 07:10:00,
2013-05-24 02:11:00,64.5,57.8,30.12,North,349,0.0,5.0,79,0.00,,---,0.00,VWS V14.01,2013-05-24 07:11:00,
2013-05-24 02:15:00,64.5,58.2,30.12,East,86,2.0,5.0,80,0.00,,---,0.00,VWS V14.01,2013-05-24 07:15:00,
2013-05-24 02:16:00,64.5,58.2,30.12,ENE,75,1.0,1.0,80,0.00,,---,0.00,VWS V14.01,2013-05-24 07:16:00,
2013-05-24 02:20:00,64.3,58.0,30.12,NE,53,2.0,3.0,80,0.00,,---,0.00,VWS V14.01,2013-05-24 07:20:00,
2013-05-24 02:21:00,64.3,58.0,30.12,NE,53,2.0,3.0,80,0.00,,---,0.00,VWS V14.01,2013-05-24 07:21:00,
2013-05-24 02:22:00,64.3,58.0,30.12,NE,51,1.0,3.0,80,0.00,,---,0.00,VWS V14.01,2013-05-24 07:22:00,
2013-05-24 02:25:00,64.2,58.3,30.12,NNW,345,1.0,3.0,81,0.00,,---,0.00,VWS V14.01,2013-05-24 07:25:00,
2013-05-24 02:26:00,64.1,58.2,30.12,NNW,344,1.0,3.0,81,0.00,,---,0.00,VWS V14.01,2013-05-24 07:26:00,
2013-05-24 02:27:00,64.1,58.2,30.12,NNW,345,1.0,3.0,81,0.00,,---,0.00,VWS V14.01,2013-05-24 07:27:00,
2013-05-24 02:30:00,63.9,58.0,30.12,NW,326,1.0,4.0,81,0.00,,---,0.00,VWS V14.01,2013-05-24 07:30:00,
2013-05-24 02:31:00,63.9,58.0,30.12,NW,326,1.0,4.0,81,0.00,,---,0.00,VWS V14.01,2013-05-24 07:31:00,
2013-05-24 02:32:00,63.9,58.0,30.12,East,79,2.0,3.0,81,0.00,,---,0.00,VWS V14.01,2013-05-24 07:32:00,
2013-05-24 02:36:00,63.8,58.2,30.12,East,84,0.0,5.0,82,0.00,,---,0.00,VWS V14.01,2013-05-24 07:36:00,
2013-05-24 02:37:00,63.7,58.1,30.12,East,83,2.0,6.0,82,0.00,,---,0.00,VWS V14.01,2013-05-24 07:37:00,
2013-05-24 02:41:00,63.6,58.0,30.12,East,82,2.0,6.0,82,0.00,,---,0.00,VWS V14.01,2013-05-24 07:41:00,
2013-05-24 02:42:00,63.5,57.9,30.12,ENE,77,7.0,7.0,82,0.00,,---,0.00,VWS V14.01,2013-05-24 07:42:00,
2013-05-24 02:46:00,63.4,57.8,30.12,ENE,77,2.0,7.0,82,0.00,,---,0.00,VWS V14.01,2013-05-24 07:46:00,
2013-05-24 02:47:00,63.4,57.8,30.12,North,349,3.0,3.0,82,0.00,,---,0.00,VWS V14.01,2013-05-24 07:47:00,
2013-05-24 02:51:00,63.3,57.7,30.12,East,83,2.0,6.0,82,0.00,,---,0.00,VWS V14.01,2013-05-24 07:51:00,
2013-05-24 02:52:00,63.2,57.6,30.13,East,89,1.0,6.0,82,0.00,,---,0.00,VWS V14.01,2013-05-24 07:52:00,
2013-05-24 02:56:00,63.1,57.5,30.13,North,353,1.0,6.0,82,0.00,,---,0.00,VWS V14.01,2013-05-24 07:56:00,
2013-05-24 02:57:00,63.0,57.4,30.13,NNW,337,0.0,6.0,82,0.00,,---,0.00,VWS V14.01,2013-05-24 07:57:00,
2013-05-24 03:01:00,62.9,57.7,30.13,NNE,32,1.0,1.0,83,0.00,,---,0.00,VWS V14.01,2013-05-24 08:01:00,
2013-05-24 03:02:00,62.8,57.6,30.12,North,349,4.0,4.0,83,0.00,,---,0.00,VWS V14.01,2013-05-24 08:02:00,
2013-05-24 03:06:00,62.6,57.4,30.12,North,359,2.0,4.0,83,0.00,,---,0.00,VWS V14.01,2013-05-24 08:06:00,
2013-05-24 03:07:00,62.5,57.3,30.12,North,358,1.0,4.0,83,0.00,,---,0.00,VWS V14.01,2013-05-24 08:07:00,
2013-05-24 03:11:00,62.4,57.2,30.12,East,81,1.0,4.0,83,0.00,,---,0.00,VWS V14.01,2013-05-24 08:11:00,
2013-05-24 03:12:00,62.4,57.2,30.12,NE,38,0.0,4.0,83,0.00,,---,0.00,VWS V14.01,2013-05-24 08:12:00,
2013-05-24 03:16:00,62.2,57.0,30.12,East,82,3.0,3.0,83,0.00,,---,0.00,VWS V14.01,2013-05-24 08:16:00,
2013-05-24 03:17:00,62.2,57.0,30.12,SE,131,1.0,3.0,83,0.00,,---,0.00,VWS V14.01,2013-05-24 08:17:00,
2013-05-24 03:21:00,62.0,56.8,30.12,East,86,2.0,3.0,83,0.00,,---,0.00,VWS V14.01,2013-05-24 08:21:00,
2013-05-24 03:22:00,62.0,56.8,30.12,ENE,77,2.0,3.0,83,0.00,,---,0.00,VWS V14.01,2013-05-24 08:22:00,
2013-05-24 03:23:00,62.0,56.8,30.12,ESE,110,1.0,3.0,83,0.00,,---,0.00,VWS V14.01,2013-05-24 08:23:00,
2013-05-24 03:26:00,61.8,56.6,30.12,East,89,2.0,3.0,83,0.00,,---,0.00,VWS V14.01,2013-05-24 08:26:00,
2013-05-24 03:27:00,61.7,56.5,30.12,ESE,119,2.0,5.0,83,0.00,,---,0.00,VWS V14.01,2013-05-24 08:27:00,
2013-05-24 03:28:00,61.7,56.2,30.12,NE,42,1.0,5.0,82,0.00,,---,0.00,VWS V14.01,2013-05-24 08:28:00,
2013-05-24 03:31:00,61.6,56.1,30.12,North,353,2.0,2.0,82,0.00,,---,0.00,VWS V14.01,2013-05-24 08:31:00,
2013-05-24 03:32:00,61.5,56.0,30.12,ESE,121,1.0,2.0,82,0.00,,---,0.00,VWS V14.01,2013-05-24 08:32:00,
2013-05-24 03:33:00,61.5,56.0,30.12,NNW,345,1.0,2.0,82,0.00,,---,0.00,VWS V14.01,2013-05-24 08:33:00,
2013-05-24 03:37:00,61.3,55.8,30.12,North,350,1.0,6.0,82,0.00,,---,0.00,VWS V14.01,2013-05-24 08:37:00,
2013-05-24 03:38:00,61.3,55.8,30.13,North,351,0.0,6.0,82,0.00,,---,0.00,VWS V14.01,2013-05-24 08:38:00,
2013-05-24 03:42:00,61.1,55.6,30.13,NE,37,3.0,6.0,82,0.00,,---,0.00,VWS V14.01,2013-05-24 08:42:00,
2013-05-24 03:43:00,61.1,55.6,30.13,North,359,2.0,6.0,82,0.00,,---,0.00,VWS V14.01,2013-05-24 08:43:00,
2013-05-24 03:44:00,61.1,55.6,30.13,North,356,1.0,6.0,82,0.00,,---,0.00,VWS V14.01,2013-05-24 08:44:00,
2013-05-24 03:47:00,61.0,55.5,30.13,ESE,103,3.0,7.0,82,0.00,,---,0.00,VWS V14.01,2013-05-24 08:47:00,
2013-05-24 03:48:00,60.9,55.4,30.13,East,93,0.0,7.0,82,0.00,,---,0.00,VWS V14.01,2013-05-24 08:48:00,
2013-05-24 03:49:00,60.9,55.4,30.13,East,93,0.0,7.0,82,0.00,,---,0.00,VWS V14.01,2013-05-24 08:49:00,
2013-05-24 03:52:00,60.8,55.3,30.13,NNE,29,1.0,7.0,82,0.00,,---,0.00,VWS V14.01,2013-05-24 08:52:00,
2013-05-24 03:53:00,60.8,55.3,30.13,North,4,2.0,7.0,82,0.00,,---,0.00,VWS V14.01,2013-05-24 08:53:00,
2013-05-24 03:54:00,60.8,55.3,30.13,North,3,1.0,7.0,82,0.00,,---,0.00,VWS V14.01,2013-05-24 08:54:00,
2013-05-24 03:58:00,60.6,55.1,30.13,NNE,14,3.0,7.0,82,0.00,,---,0.00,VWS V14.01,2013-05-24 08:58:00,
2013-05-24 03:59:00,60.6,55.4,30.13,ENE,59,1.0,7.0,83,0.00,,---,0.00,VWS V14.01,2013-05-24 08:59:00,
2013-05-24 04:03:00,60.5,55.3,30.13,NNE,17,1.0,7.0,83,0.00,,---,0.00,VWS V14.01,2013-05-24 09:03:00,
2013-05-24 04:04:00,60.4,55.2,30.13,NE,45,2.0,7.0,83,0.00,,---,0.00,VWS V14.01,2013-05-24 09:04:00,
2013-05-24 04:08:00,60.3,55.1,30.14,NNE,24,1.0,7.0,83,0.00,,---,0.00,VWS V14.01,2013-05-24 09:08:00,
2013-05-24 04:09:00,60.3,55.1,30.14,NNW,342,0.0,7.0,83,0.00,,---,0.00,VWS V14.01,2013-05-24 09:09:00,
2013-05-24 04:13:00,60.2,55.0,30.14,NNE,20,2.0,7.0,83,0.00,,---,0.00,VWS V14.01,2013-05-24 09:13:00,
2013-05-24 04:14:00,60.2,55.0,30.14,NNE,15,1.0,7.0,83,0.00,,---,0.00,VWS V14.01,2013-05-24 09:14:00,
2013-05-24 04:15:00,60.1,54.9,30.14,NNE,15,1.0,7.0,83,0.00,,---,0.00,VWS V14.01,2013-05-24 09:15:00,
2013-05-24 04:18:00,60.1,54.9,30.15,NNE,15,2.0,4.0,83,0.00,,---,0.00,VWS V14.01,2013-05-24 09:18:00,
2013-05-24 04:19:00,60.0,54.5,30.15,East,80,4.0,4.0,82,0.00,,---,0.00,VWS V14.01,2013-05-24 09:19:00,
2013-05-24 04:20:00,60.0,54.2,30.15,NNE,28,3.0,5.0,81,0.00,,---,0.00,VWS V14.01,2013-05-24 09:20:00,
2013-05-24 04:23:00,59.9,54.1,30.15,NW,315,1.0,5.0,81,0.00,,---,0.00,VWS V14.01,2013-05-24 09:23:00,
2013-05-24 04:24:00,59.9,53.7,30.15,NNW,332,2.0,5.0,80,0.00,,---,0.00,VWS V14.01,2013-05-24 09:24:00,
2013-05-24 04:25:00,59.9,53.7,30.15,North,6,2.0,5.0,80,0.00,,---,0.00,VWS V14.01,2013-05-24 09:25:00,
2013-05-24 04:28:00,59.8,53.3,30.15,NE,35,3.0,8.0,79,0.00,,---,0.00,VWS V14.01,2013-05-24 09:28:00,
2013-05-24 04:29:00,59.8,53.3,30.15,NE,44,2.0,8.0,79,0.00,,---,0.00,VWS V14.01,2013-05-24 09:29:00,
2013-05-24 04:30:00,59.8,53.3,30.15,NNW,342,2.0,8.0,79,0.00,,---,0.00,VWS V14.01,2013-05-24 09:30:00,
2013-05-24 04:34:00,59.7,53.2,30.15,NNE,20,2.0,5.0,79,0.00,,---,0.00,VWS V14.01,2013-05-24 09:34:00,
2013-05-24 04:36:00,59.6,53.1,30.15,NE,34,1.0,5.0,79,0.00,,---,0.00,VWS V14.01,2013-05-24 09:36:00,
2013-05-24 04:39:00,59.6,52.7,30.15,ENE,63,4.0,8.0,78,0.00,,---,0.00,VWS V14.01,2013-05-24 09:39:00,
2013-05-24 04:41:00,59.5,52.6,30.14,NNE,14,5.0,8.0,78,0.00,,---,0.00,VWS V14.01,2013-05-24 09:41:00,
2013-05-24 04:44:00,59.4,52.5,30.15,NE,42,2.0,8.0,78,0.00,,---,0.00,VWS V14.01,2013-05-24 09:44:00,
2013-05-24 04:46:00,59.3,52.5,30.15,NNW,345,3.0,5.0,78,0.00,,---,0.00,VWS V14.01,2013-05-24 09:46:00,
2013-05-24 04:49:00,59.2,52.3,30.15,NNE,20,2.0,5.0,78,0.00,,---,0.00,VWS V14.01,2013-05-24 09:49:00,
2013-05-24 04:51:00,59.2,52.0,30.15,NE,55,1.0,9.0,77,0.00,,---,0.00,VWS V14.01,2013-05-24 09:51:00,
2013-05-24 04:54:00,59.1,52.3,30.15,NE,41,1.0,9.0,78,0.00,,---,0.00,VWS V14.01,2013-05-24 09:54:00,
2013-05-24 04:55:00,59.1,52.3,30.15,NE,41,0.0,9.0,78,0.00,,---,0.00,VWS V14.01,2013-05-24 09:55:00,
2013-05-24 04:56:00,59.0,52.2,30.15,NE,35,1.0,9.0,78,0.00,,---,0.00,VWS V14.01,2013-05-24 09:56:00,
2013-05-24 04:59:00,59.0,52.2,30.15,NNE,18,3.0,9.0,78,0.00,,---,0.00,VWS V14.01,2013-05-24 09:59:00,
2013-05-24 05:00:00,58.9,52.1,30.15,NE,39,3.0,9.0,78,0.00,,---,0.00,VWS V14.01,2013-05-24 10:00:00,
2013-05-24 05:01:00,58.9,52.1,30.15,NW,320,1.0,3.0,78,0.00,,---,0.00,VWS V14.01,2013-05-24 10:01:00,
2013-05-24 05:04:00,58.8,52.0,30.16,NNE,17,2.0,7.0,78,0.00,,---,0.00,VWS V14.01,2013-05-24 10:04:00,
2013-05-24 05:05:00,58.8,52.0,30.16,NE,56,3.0,7.0,78,0.00,,---,0.00,VWS V14.01,2013-05-24 10:05:00,
2013-05-24 05:06:00,58.7,51.9,30.16,NNW,344,2.0,7.0,78,0.00,,---,0.00,VWS V14.01,2013-05-24 10:06:00,
2013-05-24 05:09:00,58.6,51.8,30.16,NE,35,2.0,7.0,78,0.00,,---,0.00,VWS V14.01,2013-05-24 10:09:00,
2013-05-24 05:10:00,58.6,52.1,30.16,NNE,21,1.0,7.0,79,0.00,,---,0.00,VWS V14.01,2013-05-24 10:10:00,
2013-05-24 05:12:00,58.6,52.1,30.16,NE,35,3.0,7.0,79,0.00,,---,0.00,VWS V14.01,2013-05-24 10:12:00,
2013-05-24 05:14:00,58.5,52.0,30.16,ENE,66,1.0,7.0,79,0.00,,---,0.00,VWS V14.01,2013-05-24 10:14:00,
2013-05-24 05:15:00,58.5,52.0,30.16,ENE,73,2.0,7.0,79,0.00,,---,0.00,VWS V14.01,2013-05-24 10:15:00,
2013-05-24 05:17:00,58.4,51.9,30.16,North,353,3.0,3.0,79,0.00,,---,0.00,VWS V14.01,2013-05-24 10:17:00,
2013-05-24 05:19:00,58.4,51.9,30.17,NE,51,2.0,3.0,79,0.00,,---,0.00,VWS V14.01,2013-05-24 10:19:00,
2013-05-24 05:20:00,58.3,51.8,30.16,NE,53,2.0,3.0,79,0.00,,---,0.00,VWS V14.01,2013-05-24 10:20:00,
2013-05-24 05:22:00,58.3,51.8,30.17,NNW,337,1.0,5.0,79,0.00,,---,0.00,VWS V14.01,2013-05-24 10:22:00,
2013-05-24 05:25:00,58.1,52.0,30.17,NNW,348,1.0,6.0,80,0.00,,---,0.00,VWS V14.01,2013-05-24 10:25:00,
2013-05-24 05:27:00,58.0,51.9,30.17,North,357,3.0,6.0,80,0.00,,---,0.00,VWS V14.01,2013-05-24 10:27:00,
2013-05-24 05:30:00,57.9,51.8,30.17,North,11,3.0,7.0,80,0.00,,---,0.00,VWS V14.01,2013-05-24 10:30:00,
2013-05-24 05:32:00,57.9,52.1,30.17,East,97,5.0,7.0,81,0.00,,---,0.00,VWS V14.01,2013-05-24 10:32:00,
2013-05-24 05:35:00,57.8,52.0,30.17,ENE,62,1.0,9.0,81,0.00,,---,0.00,VWS V14.01,2013-05-24 10:35:00,
2013-05-24 05:37:00,57.7,51.9,30.18,NNE,25,2.0,9.0,81,0.00,,---,0.00,VWS V14.01,2013-05-24 10:37:00,
2013-05-24 05:40:00,57.6,52.2,30.17,NNE,30,2.0,9.0,82,0.00,,---,0.00,VWS V14.01,2013-05-24 10:40:00,
2013-05-24 05:41:00,57.6,52.2,30.18,NNW,330,2.0,9.0,82,0.00,,---,0.00,VWS V14.01,2013-05-24 10:41:00,
2013-05-24 05:43:00,57.5,52.1,30.18,North,6,3.0,9.0,82,0.00,,---,0.00,VWS V14.01,2013-05-24 10:43:00,
2013-05-24 05:45:00,57.4,52.0,30.18,NNW,346,3.0,9.0,82,0.00,,---,0.00,VWS V14.01,2013-05-24 10:45:00,
2013-05-24 05:46:00,57.4,52.0,30.18,ENE,70,2.0,4.0,82,0.00,,---,0.00,VWS V14.01,2013-05-24 10:46:00,
2013-05-24 05:48:00,57.4,52.0,30.18,NNE,14,2.0,5.0,82,0.00,,---,0.00,VWS V14.01,2013-05-24 10:48:00,
2013-05-24 05:50:00,57.3,51.9,30.18,NW,321,3.0,5.0,82,0.00,,---,0.00,VWS V14.01,2013-05-24 10:50:00,
2013-05-24 05:51:00,57.3,52.2,30.18,NNE,17,3.0,5.0,83,0.00,,---,0.00,VWS V14.01,2013-05-24 10:51:00,
2013-05-24 05:53:00,57.2,52.1,30.18,ENE,77,3.0,5.0,83,0.00,,---,0.00,VWS V14.01,2013-05-24 10:53:00,
2013-05-24 05:56:00,57.2,52.1,30.18,North,357,1.0,6.0,83,0.00,,---,0.00,VWS V14.01,2013-05-24 10:56:00,
2013-05-24 05:58:00,57.1,52.0,30.19,NNW,337,1.0,6.0,83,0.00,,---,0.00,VWS V14.01,2013-05-24 10:58:00,
2013-05-24 06:01:00,57.1,52.0,30.19,ENE,70,2.0,2.0,83,0.00,,---,0.00,VWS V14.01,2013-05-24 11:01:00,
2013-05-24 06:03:00,57.0,51.9,30.19,East,82,4.0,5.0,83,0.00,,---,0.00,VWS V14.01,2013-05-24 11:03:00,
2013-05-24 06:06:00,56.9,51.8,30.19,North,8,3.0,6.0,83,0.00,,---,0.00,VWS V14.01,2013-05-24 11:06:00,
2013-05-24 06:08:00,56.9,51.8,30.19,North,7,4.0,6.0,83,0.00,,---,0.00,VWS V14.01,2013-05-24 11:08:00,
2013-05-24 06:11:00,56.8,51.7,30.19,East,96,4.0,6.0,83,0.00,,---,0.00,VWS V14.01,2013-05-24 11:11:00,
2013-05-24 06:13:00,56.8,51.7,30.19,North,360,2.0,6.0,83,0.00,,---,0.00,VWS V14.01,2013-05-24 11:13:00,
2013-05-24 06:16:00,56.8,51.7,30.20,East,96,2.0,2.0,83,0.00,,---,0.00,VWS V14.01,2013-05-24 11:16:00,
2013-05-24 06:18:00,56.7,51.6,30.20,North,8,2.0,8.0,83,0.00,,---,0.00,VWS V14.01,2013-05-24 11:18:00,
2013-05-24 06:21:00,56.7,51.6,30.20,North,11,1.0,8.0,83,0.00,,---,0.00,VWS V14.01,2013-05-24 11:21:00,
2013-05-24 06:22:00,56.7,51.6,30.20,NE,55,2.0,8.0,83,0.00,,---,0.00,VWS V14.01,2013-05-24 11:22:00,
2013-05-24 06:24:00,56.7,51.6,30.20,ESE,115,4.0,8.0,83,0.00,,---,0.00,VWS V14.01,2013-05-24 11:24:00,
2013-05-24 06:26:00,56.7,51.6,30.20,ENE,66,1.0,8.0,83,0.00,,---,0.00,VWS V14.01,2013-05-24 11:26:00,
2013-05-24 06:27:00,56.7,51.6,30.20,NNW,328,1.0,8.0,83,0.00,,---,0.00,VWS V14.01,2013-05-24 11:27:00,
2013-05-24 06:29:00,56.8,51.7,30.20,North,3,1.0,8.0,83,0.00,,---,0.00,VWS V14.01,2013-05-24 11:29:00,
2013-05-24 06:31:00,56.8,51.7,30.21,North,356,2.0,4.0,83,0.00,,---,0.00,VWS V14.01,2013-05-24 11:31:00,
2013-05-24 06:32:00,56.8,51.7,30.21,North,6,2.0,4.0,83,0.00,,---,0.00,VWS V14.01,2013-05-24 11:32:00,
2013-05-24 06:34:00,56.9,51.8,30.21,NE,36,2.0,7.0,83,0.00,,---,0.00,VWS V14.01,2013-05-24 11:34:00,
2013-05-24 06:36:00,57.0,51.9,30.21,NNE,13,1.0,10.0,83,0.00,,---,0.00,VWS V14.01,2013-05-24 11:36:00,
2013-05-24 06:37:00,57.0,51.9,30.21,NNW,340,2.0,10.0,83,0.00,,---,0.00,VWS V14.01,2013-05-24 11:37:00,
2013-05-24 06:39:00,57.0,51.9,30.21,North,3,2.0,10.0,83,0.00,,---,0.00,VWS V14.01,2013-05-24 11:39:00,
2013-05-24 06:41:00,57.0,51.9,30.21,NNE,17,1.0,10.0,83,0.00,,---,0.00,VWS V14.01,2013-05-24 11:41:00,
2013-05-24 06:42:00,57.1,52.0,30.21,North,350,1.0,10.0,83,0.00,,---,0.00,VWS V14.01,2013-05-24 11:42:00,
2013-05-24 06:44:00,57.1,52.0,30.22,NNW,346,2.0,10.0,83,0.00,,---,0.00,VWS V14.01,2013-05-24 11:44:00,
2013-05-24 06:46:00,57.1,51.7,30.22,ENE,60,2.0,8.0,82,0.00,,---,0.00,VWS V14.01,2013-05-24 11:46:00,
2013-05-24 06:47:00,57.1,51.7,30.22,East,86,2.0,8.0,82,0.00,,---,0.00,VWS V14.01,2013-05-24 11:47:00,
2013-05-24 06:49:00,57.2,51.8,30.22,ENE,77,5.0,8.0,82,0.00,,---,0.00,VWS V14.01,2013-05-24 11:49:00,
2013-05-24 06:52:00,57.3,51.9,30.22,North,6,2.0,8.0,82,0.00,,---,0.00,VWS V14.01,2013-05-24 11:52:00,
2013-05-24 06:54:00,57.4,52.0,30.22,North,1,2.0,8.0,82,0.00,,---,0.00,VWS V14.01,2013-05-24 11:54:00,
2013-05-24 06:57:00,57.4,52.0,30.23,NNW,340,1.0,8.0,82,0.00,,---,0.00,VWS V14.01,2013-05-24 11:57:00,
2013-05-24 06:59:00,57.4,52.0,30.23,North,8,3.0,8.0,82,0.00,,---,0.00,VWS V14.01,2013-05-24 11:59:00,
2013-05-24 07:02:00,57.3,51.9,30.23,East,97,4.0,5.0,82,0.00,,---,0.00,VWS V14.01,2013-05-24 12:02:00,
2013-05-24 07:03:00,57.3,51.9,30.23,East,82,11.0,11.0,82,0.00,,---,0.00,VWS V14.01,2013-05-24 12:03:00,
2013-05-24 07:05:00,57.2,51.8,30.23,NNE,22,7.0,11.0,82,0.00,,---,0.00,VWS V14.01,2013-05-24 12:05:00,
2013-05-24 07:07:00,57.1,51.7,30.23,NNW,344,4.0,11.0,82,0.00,,---,0.00,VWS V14.01,2013-05-24 12:07:00,
2013-05-24 07:08:00,57.0,51.6,30.23,NNE,20,3.0,11.0,82,0.00,,---,0.00,VWS V14.01,2013-05-24 12:08:00,
2013-05-24 07:10:00,57.0,51.6,30.23,NNE,25,5.0,11.0,82,0.00,,---,0.00,VWS V14.01,2013-05-24 12:10:00,
2013-05-24 07:12:00,57.0,51.6,30.23,ENE,77,1.0,11.0,82,0.00,,---,0.00,VWS V14.01,2013-05-24 12:12:00,
2013-05-24 07:13:00,57.0,51.6,30.23,NE,56,3.0,11.0,82,0.00,,---,0.00,VWS V14.01,2013-05-24 12:13:00,
2013-05-24 07:15:00,57.0,51.6,30.24,North,360,5.0,11.0,82,0.00,,---,0.00,VWS V14.01,2013-05-24 12:15:00,
2013-05-24 07:18:00,57.0,51.6,30.24,East,101,2.0,7.0,82,0.00,,---,0.00,VWS V14.01,2013-05-24 12:18:00,
2013-05-24 07:20:00,57.0,51.6,30.24,East,89,4.0,7.0,82,0.00,,---,0.00,VWS V14.01,2013-05-24 12:20:00,
2013-05-24 07:23:00,57.1,51.7,30.24,NNW,345,3.0,8.0,82,0.00,,---,0.00,VWS V14.01,2013-05-24 12:23:00,
2013-05-24 07:24:00,57.1,51.7,30.24,SE,124,6.0,8.0,82,0.00,,---,0.00,VWS V14.01,2013-05-24 12:24:00,
2013-05-24 07:25:00,57.1,51.7,30.24,East,84,6.0,8.0,82,0.00,,---,0.00,VWS V14.01,2013-05-24 12:25:00,
2013-05-24 07:28:00,57.1,51.7,30.24,NW,311,2.0,8.0,82,0.00,,---,0.00,VWS V14.01,2013-05-24 12:28:00,
2013-05-24 07:29:00,57.2,51.8,30.24,ENE,77,1.0,8.0,82,0.00,,---,0.00,VWS V14.01,2013-05-24 12:29:00,
2013-05-24 07:30:00,57.2,51.4,30.24,ENE,72,5.0,8.0,81,0.00,,---,0.00,VWS V14.01,2013-05-24 12:30:00,
2013-05-24 07:33:00,57.2,51.4,30.24,North,10,2.0,8.0,81,0.00,,---,0.00,VWS V14.01,2013-05-24 12:33:00,
2013-05-24 07:34:00,57.2,51.4,30.24,ENE,60,2.0,8.0,81,0.00,,---,0.00,VWS V14.01,2013-05-24 12:34:00,
2013-05-24 07:35:00,57.2,51.8,30.25,North,356,3.0,8.0,82,0.00,,---,0.00,VWS V14.01,2013-05-24 12:35:00,
2013-05-24 07:38:00,57.3,51.5,30.25,NNW,336,3.0,8.0,81,0.00,,---,0.00,VWS V14.01,2013-05-24 12:38:00,
2013-05-24 07:39:00,57.3,51.5,30.25,North,356,5.0,8.0,81,0.00,,---,0.00,VWS V14.01,2013-05-24 12:39:00,
2013-05-24 07:40:00,57.3,51.5,30.25,NNE,13,4.0,8.0,81,0.00,,---,0.00,VWS V14.01,2013-05-24 12:40:00,
2013-05-24 07:44:00,57.3,51.2,30.25,NNE,28,3.0,8.0,80,0.00,,---,0.00,VWS V14.01,2013-05-24 12:44:00,
2013-05-24 07:45:00,57.3,51.5,30.25,NNE,22,3.0,8.0,81,0.00,,---,0.00,VWS V14.01,2013-05-24 12:45:00,
2013-05-24 07:49:00,57.5,51.7,30.25,NW,326,2.0,3.0,81,0.00,,---,0.00,VWS V14.01,2013-05-24 12:49:00,
2013-05-24 07:51:00,57.6,51.8,30.25,ESE,104,5.0,6.0,81,0.00,,---,0.00,VWS V14.01,2013-05-24 12:51:00,
2013-05-24 07:54:00,57.7,51.6,30.25,East,91,7.0,7.0,80,0.00,,---,0.00,VWS V14.01,2013-05-24 12:54:00,
2013-05-24 07:56:00,57.8,51.3,30.25,NNE,20,1.0,7.0,79,0.00,,---,0.00,VWS V14.01,2013-05-24 12:56:00,
2013-05-24 07:59:00,57.8,51.3,30.25,NNE,29,3.0,7.0,79,0.00,,---,0.00,VWS V14.01,2013-05-24 12:59:00,
2013-05-24 08:00:00,57.8,51.0,30.25,NNE,24,5.0,11.0,78,0.00,,---,0.00,VWS V14.01,2013-05-24 13:00:00,
2013-05-24 08:01:00,57.8,51.3,30.25,NNE,30,2.0,5.0,79,0.00,,---,0.00,VWS V14.01,2013-05-24 13:01:00,
2013-05-24 08:04:00,58.0,51.5,30.25,East,98,1.0,8.0,79,0.00,,---,0.00,VWS V14.01,2013-05-24 13:04:00,
2013-05-24 08:05:00,58.1,51.6,30.25,North,6,3.0,8.0,79,0.00,,---,0.00,VWS V14.01,2013-05-24 13:05:00,
2013-05-24 08:06:00,58.1,51.6,30.25,ENE,65,6.0,8.0,79,0.00,,---,0.00,VWS V14.01,2013-05-24 13:06:00,
2013-05-24 08:09:00,58.1,51.3,30.25,NNE,22,2.0,8.0,78,0.00,,---,0.00,VWS V14.01,2013-05-24 13:09:00,
2013-05-24 08:10:00,58.1,51.3,30.25,East,84,5.0,8.0,78,0.00,,---,0.00,VWS V14.01,2013-05-24 13:10:00,
2013-05-24 08:11:00,58.1,51.3,30.25,NE,46,2.0,8.0,78,0.00,,---,0.00,VWS V14.01,2013-05-24 13:11:00,
2013-05-24 08:14:00,58.3,51.8,30.25,NE,55,3.0,8.0,79,0.00,,---,0.00,VWS V14.01,2013-05-24 13:14:00,
2013-05-24 08:15:00,58.4,51.9,30.25,North,359,1.0,8.0,79,0.00,,---,0.00,VWS V14.01,2013-05-24 13:15:00,
2013-05-24 08:16:00,58.4,51.6,30.25,North,352,3.0,7.0,78,0.00,,---,0.00,VWS V14.01,2013-05-24 13:16:00,
2013-05-24 08:19:00,58.5,51.3,30.25,NE,39,7.0,9.0,77,0.00,,---,0.00,VWS V14.01,2013-05-24 13:19:00,
2013-05-24 08:20:00,58.5,51.3,30.25,NE,56,4.0,11.0,77,0.00,,---,0.00,VWS V14.01,2013-05-24 13:20:00,
2013-05-24 08:21:00,58.4,51.2,30.26,NE,37,3.0,11.0,77,0.00,,---,0.00,VWS V14.01,2013-05-24 13:21:00,
2013-05-24 08:24:00,58.4,51.2,30.25,NNW,328,2.0,11.0,77,0.00,,---,0.00,VWS V14.01,2013-05-24 13:24:00,
2013-05-24 08:25:00,58.5,51.7,30.25,ENE,73,4.0,11.0,78,0.00,,---,0.00,VWS V14.01,2013-05-24 13:25:00,
2013-05-24 08:26:00,58.5,51.7,30.25,NE,36,2.0,11.0,78,0.00,,---,0.00,VWS V14.01,2013-05-24 13:26:00,
2013-05-24 08:29:00,58.7,51.5,30.26,NNE,15,4.0,11.0,77,0.00,,---,0.00,VWS V14.01,2013-05-24 13:29:00,
2013-05-24 08:30:00,58.7,51.5,30.26,NNE,24,4.0,11.0,77,0.00,,---,0.00,VWS V14.01,2013-05-24 13:30:00,
2013-05-24 08:31:00,58.7,51.5,30.26,North,351,3.0,4.0,77,0.00,,---,0.00,VWS V14.01,2013-05-24 13:31:00,
2013-05-24 08:32:00,58.7,51.5,30.26,ENE,76,9.0,9.0,77,0.00,,---,0.00,VWS V14.01,2013-05-24 13:32:00,
2013-05-24 08:34:00,58.8,51.3,30.26,NNE,14,3.0,9.0,76,0.00,,---,0.00,VWS V14.01,2013-05-24 13:34:00,
2013-05-24 08:35:00,58.8,51.6,30.26,ENE,73,7.0,9.0,77,0.00,,---,0.00,VWS V14.01,2013-05-24 13:35:00,
2013-05-24 08:36:00,58.8,51.3,30.26,ENE,70,5.0,9.0,76,0.00,,---,0.00,VWS V14.01,2013-05-24 13:36:00,
2013-05-24 08:37:00,58.9,51.4,30.26,NNE,22,3.0,9.0,76,0.00,,---,0.00,VWS V14.01,2013-05-24 13:37:00,
2013-05-24 08:39:00,59.0,51.5,30.26,NE,34,5.0,9.0,76,0.00,,---,0.00,VWS V14.01,2013-05-24 13:39:00,
2013-05-24 08:40:00,59.0,51.5,30.26,ENE,60,5.0,9.0,76,0.00,,---,0.00,VWS V14.01,2013-05-24 13:40:00,
2013-05-24 08:41:00,59.0,51.5,30.26,East,80,4.0,10.0,76,0.00,,---,0.00,VWS V14.01,2013-05-24 13:41:00,
2013-05-24 08:42:00,59.1,51.5,30.26,NW,326,2.0,10.0,76,0.00,,---,0.00,VWS V14.01,2013-05-24 13:42:00,
2013-05-24 08:45:00,59.4,51.8,30.26,NNE,28,2.0,10.0,76,0.00,,---,0.00,VWS V14.01,2013-05-24 13:45:00,
2013-05-24 08:46:00,59.5,51.9,30.26,NNE,22,5.0,5.0,76,0.00,,---,0.00,VWS V14.01,2013-05-24 13:46:00,
2013-05-24 08:47:00,59.5,51.6,30.26,NE,48,3.0,8.0,75,0.00,,---,0.00,VWS V14.01,2013-05-24 13:47:00,
2013-05-24 08:50:00,59.7,52.1,30.26,ENE,69,4.0,8.0,76,0.00,,---,0.00,VWS V14.01,2013-05-24 13:50:00,
2013-05-24 08:51:00,59.7,51.8,30.26,NNE,21,1.0,8.0,75,0.00,,---,0.00,VWS V14.01,2013-05-24 13:51:00,
2013-05-24 08:52:00,59.8,51.9,30.26,NNE,25,4.0,8.0,75,0.00,,---,0.00,VWS V14.01,2013-05-24 13:52:00,
2013-05-24 08:55:00,59.9,51.6,30.26,North,350,1.0,8.0,74,0.00,,---,0.00,VWS V14.01,2013-05-24 13:55:00,
2013-05-24 08:56:00,59.9,52.0,30.26,North,350,3.0,8.0,75,0.00,,---,0.00,VWS V14.01,2013-05-24 13:56:00,
2013-05-24 08:57:00,60.0,52.1,30.26,ENE,74,4.0,8.0,75,0.00,,---,0.00,VWS V14.01,2013-05-24 13:57:00,
2013-05-24 09:00:00,60.3,52.3,30.26,NNE,25,3.0,8.0,75,0.00,,---,0.00,VWS V14.01,2013-05-24 14:00:00,
2013-05-24 09:01:00,60.3,52.0,30.26,East,90,2.0,2.0,74,0.00,,---,0.00,VWS V14.01,2013-05-24 14:01:00,
2013-05-24 09:02:00,60.4,52.5,30.26,NNW,333,1.0,6.0,75,0.00,,---,0.00,VWS V14.01,2013-05-24 14:02:00,
2013-05-24 09:03:00,60.5,52.5,30.26,North,1,2.0,6.0,75,0.00,,---,0.00,VWS V14.01,2013-05-24 14:03:00,
2013-05-24 09:05:00,60.7,52.7,30.26,North,354,2.0,6.0,75,0.00,,---,0.00,VWS V14.01,2013-05-24 14:05:00,
2013-05-24 09:06:00,60.8,52.8,30.26,North,360,1.0,6.0,75,0.00,,---,0.00,VWS V14.01,2013-05-24 14:06:00,
2013-05-24 09:08:00,61.1,53.1,30.26,North,11,1.0,6.0,75,0.00,,---,0.00,VWS V14.01,2013-05-24 14:08:00,
2013-05-24 09:10:00,61.3,53.0,30.26,NW,325,1.0,6.0,74,0.00,,---,0.00,VWS V14.01,2013-05-24 14:10:00,
2013-05-24 09:11:00,61.4,53.0,30.26,North,359,2.0,6.0,74,0.00,,---,0.00,VWS V14.01,2013-05-24 14:11:00,
2013-05-24 09:13:00,61.6,53.2,30.26,North,350,1.0,6.0,74,0.00,,---,0.00,VWS V14.01,2013-05-24 14:13:00,
2013-05-24 09:15:00,61.9,53.2,30.26,ENE,75,2.0,6.0,73,0.00,,---,0.00,VWS V14.01,2013-05-24 14:15:00,
2013-05-24 09:16:00,62.0,53.3,30.25,North,357,3.0,6.0,73,0.00,,---,0.00,VWS V14.01,2013-05-24 14:16:00,
2013-05-24 09:18:00,62.0,52.9,30.25,NE,53,2.0,6.0,72,0.00,,---,0.00,VWS V14.01,2013-05-24 14:18:00,
2013-05-24 09:21:00,61.8,51.9,30.25,North,10,3.0,10.0,70,0.00,,---,0.00,VWS V14.01,2013-05-24 14:21:00,
2013-05-24 09:23:00,61.8,52.3,30.25,ENE,60,2.0,10.0,71,0.00,,---,0.00,VWS V14.01,2013-05-24 14:23:00,
2013-05-24 09:24:00,61.8,52.3,30.25,NNW,340,1.0,10.0,71,0.00,,---,0.00,VWS V14.01,2013-05-24 14:24:00,
2013-05-24 09:26:00,62.0,52.9,30.25,North,359,1.0,10.0,72,0.00,,---,0.00,VWS V14.01,2013-05-24 14:26:00,
2013-05-24 09:28:00,62.2,52.3,30.26,ENE,74,2.0,10.0,70,0.00,,---,0.00,VWS V14.01,2013-05-24 14:28:00,
2013-05-24 09:29:00,62.2,52.3,30.25,North,8,4.0,10.0,70,0.00,,---,0.00,VWS V14.01,2013-05-24 14:29:00,
2013-05-24 09:31:00,62.3,52.4,30.25,North,1,2.0,3.0,70,0.00,,---,0.00,VWS V14.01,2013-05-24 14:31:00,
2013-05-24 09:32:00,62.3,52.4,30.25,North,8,2.0,3.0,70,0.00,,---,0.00,VWS V14.01,2013-05-24 14:32:00,
2013-05-24 09:33:00,62.4,52.5,30.25,NNE,20,5.0,8.0,70,0.00,,---,0.00,VWS V14.01,2013-05-24 14:33:00,
2013-05-24 09:34:00,62.5,52.2,30.25,East,80,2.0,8.0,69,0.00,,---,0.00,VWS V14.01,2013-05-24 14:34:00,
2013-05-24 09:36:00,62.5,52.2,30.26,SE,141,4.0,10.0,69,0.00,,---,0.00,VWS V14.01,2013-05-24 14:36:00,
2013-05-24 09:37:00,62.5,52.2,30.25,NE,56,2.0,10.0,69,0.00,,---,0.00,VWS V14.01,2013-05-24 14:37:00,
2013-05-24 09:38:00,62.5,52.6,30.25,NNE,22,3.0,10.0,70,0.00,,---,0.00,VWS V14.01,2013-05-24 14:38:00,
2013-05-24 09:39:00,62.5,52.6,30.25,NE,37,1.0,10.0,70,0.00,,---,0.00,VWS V14.01,2013-05-24 14:39:00,
2013-05-24 09:41:00,62.6,52.7,30.25,East,84,4.0,10.0,70,0.00,,---,0.00,VWS V14.01,2013-05-24 14:41:00,
2013-05-24 09:42:00,62.7,52.8,30.25,East,99,3.0,10.0,70,0.00,,---,0.00,VWS V14.01,2013-05-24 14:42:00,
2013-05-24 09:43:00,62.7,52.0,30.25,NE,37,3.0,10.0,68,0.00,,---,0.00,VWS V14.01,2013-05-24 14:43:00,
2013-05-24 09:45:00,62.8,52.5,30.25,North,8,3.0,10.0,69,0.00,,---,0.00,VWS V14.01,2013-05-24 14:45:00,
2013-05-24 09:46:00,62.9,52.6,30.26,ENE,77,2.0,4.0,69,0.00,,---,0.00,VWS V14.01,2013-05-24 14:46:00,
2013-05-24 09:47:00,63.0,53.1,30.26,North,3,4.0,12.0,70,0.00,,---,0.00,VWS V14.01,2013-05-24 14:47:00,
2013-05-24 09:48:00,63.1,52.4,30.26,East,89,5.0,12.0,68,0.00,,---,0.00,VWS V14.01,2013-05-24 14:48:00,
2013-05-24 09:50:00,63.1,52.0,30.26,NE,35,5.0,12.0,67,0.00,,---,0.00,VWS V14.01,2013-05-24 14:50:00,
2013-05-24 09:52:00,63.1,52.4,30.26,NNE,14,3.0,12.0,68,0.00,,---,0.00,VWS V14.01,2013-05-24 14:52:00,
2013-05-24 09:53:00,63.2,52.5,30.26,NNE,15,2.0,12.0,68,0.00,,---,0.00,VWS V14.01,2013-05-24 14:53:00,
2013-05-24 09:55:00,63.4,53.1,30.26,NNW,342,4.0,12.0,69,0.00,,---,0.00,VWS V14.01,2013-05-24 14:55:00,
2013-05-24 09:57:00,63.5,52.4,30.26,NNE,22,3.0,12.0,67,0.00,,---,0.00,VWS V14.01,2013-05-24 14:57:00,
2013-05-24 09:59:00,63.6,52.0,30.26,North,8,3.0,12.0,66,0.00,,---,0.00,VWS V14.01,2013-05-24 14:59:00,
2013-05-24 10:00:00,63.7,52.1,30.25,NNE,25,2.0,12.0,66,0.00,,---,0.00,VWS V14.01,2013-05-24 15:00:00,
2013-05-24 10:02:00,63.7,52.5,30.25,North,360,2.0,4.0,67,0.00,,---,0.00,VWS V14.01,2013-05-24 15:02:00,
2013-05-24 10:04:00,63.9,52.3,30.26,NW,323,2.0,5.0,66,0.00,,---,0.00,VWS V14.01,2013-05-24 15:04:00,
2013-05-24 10:05:00,64.0,52.8,30.26,NNE,28,3.0,12.0,67,0.00,,---,0.00,VWS V14.01,2013-05-24 15:05:00,
2013-05-24 10:07:00,64.0,52.0,30.26,ESE,103,2.0,12.0,65,0.00,,---,0.00,VWS V14.01,2013-05-24 15:07:00,
2013-05-24 10:09:00,64.1,52.5,30.26,East,82,6.0,12.0,66,0.00,,---,0.00,VWS V14.01,2013-05-24 15:09:00,
2013-05-24 10:10:00,64.2,52.6,30.25,ENE,69,3.0,12.0,66,0.00,,---,0.00,VWS V14.01,2013-05-24 15:10:00,
2013-05-24 10:12:00,64.2,52.2,30.26,SE,145,6.0,12.0,65,0.00,,---,0.00,VWS V14.01,2013-05-24 15:12:00,
2013-05-24 10:14:00,64.3,52.7,30.26,East,82,4.0,12.0,66,0.00,,---,0.00,VWS V14.01,2013-05-24 15:14:00,
2013-05-24 10:15:00,64.4,52.8,30.26,North,354,1.0,12.0,66,0.00,,---,0.00,VWS V14.01,2013-05-24 15:15:00,
2013-05-24 10:17:00,64.7,53.1,30.26,ESE,108,4.0,8.0,66,0.00,,---,0.00,VWS V14.01,2013-05-24 15:17:00,
2013-05-24 10:19:00,64.9,52.5,30.26,ENE,65,3.0,8.0,64,0.00,,---,0.00,VWS V14.01,2013-05-24 15:19:00,
2013-05-24 10:20:00,65.0,52.5,30.26,NE,49,4.0,8.0,64,0.00,,---,0.00,VWS V14.01,2013-05-24 15:20:00,
2013-05-24 10:22:00,65.1,52.6,30.26,NE,52,1.0,8.0,64,0.00,,---,0.00,VWS V14.01,2013-05-24 15:22:00,
2013-05-24 10:23:00,65.1,52.6,30.26,NE,48,1.0,8.0,64,0.00,,---,0.00,VWS V14.01,2013-05-24 15:23:00,
2013-05-24 10:24:00,65.2,53.2,30.26,North,3,2.0,8.0,65,0.00,,---,0.00,VWS V14.01,2013-05-24 15:24:00,
2013-05-24 10:25:00,65.4,52.9,30.26,NNE,24,2.0,8.0,64,0.00,,---,0.00,VWS V14.01,2013-05-24 15:25:00,
2013-05-24 10:28:00,65.5,52.2,30.26,NNE,14,3.0,8.0,62,0.00,,---,0.00,VWS V14.01,2013-05-24 15:28:00,
2013-05-24 10:30:00,65.5,52.2,30.26,East,83,9.0,9.0,62,0.00,,---,0.00,VWS V14.01,2013-05-24 15:30:00,
2013-05-24 10:31:00,65.5,51.7,30.27,ENE,73,2.0,2.0,61,0.00,,---,0.00,VWS V14.01,2013-05-24 15:31:00,
2013-05-24 10:33:00,65.4,52.1,30.27,ENE,72,4.0,8.0,62,0.00,,---,0.00,VWS V14.01,2013-05-24 15:33:00,
2013-05-24 10:35:00,65.3,52.4,30.27,NE,34,4.0,8.0,63,0.00,,---,0.00,VWS V14.01,2013-05-24 15:35:00,
2013-05-24 10:36:00,65.4,52.5,30.26,East,88,5.0,8.0,63,0.00,,---,0.00,VWS V14.01,2013-05-24 15:36:00,
2013-05-24 10:38:00,65.4,52.1,30.27,NNE,28,3.0,8.0,62,0.00,,---,0.00,VWS V14.01,2013-05-24 15:38:00,
2013-05-24 10:39:00,65.4,52.1,30.27,NNE,27,3.0,8.0,62,0.00,,---,0.00,VWS V14.01,2013-05-24 15:39:00,
2013-05-24 10:40:00,65.5,51.7,30.27,NE,41,2.0,8.0,61,0.00,,---,0.00,VWS V14.01,2013-05-24 15:40:00,
2013-05-24 10:42:00,65.7,51.5,30.27,ENE,70,4.0,9.0,60,0.00,,---,0.00,VWS V14.01,2013-05-24 15:42:00,
2013-05-24 10:43:00,65.7,51.0,30.27,NNE,24,3.0,9.0,59,0.00,,---,0.00,VWS V14.01,2013-05-24 15:43:00,
2013-05-24 10:44:00,65.7,51.0,30.27,NNW,333,3.0,9.0,59,0.00,,---,0.00,VWS V14.01,2013-05-24 15:44:00,
2013-05-24 10:45:00,65.7,51.5,30.27,NE,34,4.0,9.0,60,0.00,,---,0.00,VWS V14.01,2013-05-24 15:45:00,
2013-05-24 10:47:00,65.8,52.0,30.27,North,7,2.0,4.0,61,0.00,,---,0.00,VWS V14.01,2013-05-24 15:47:00,
2013-05-24 10:48:00,65.8,51.1,30.27,ENE,77,5.0,12.0,59,0.00,,---,0.00,VWS V14.01,2013-05-24 15:48:00,
2013-05-24 10:49:00,65.8,51.1,30.27,ENE,60,5.0,12.0,59,0.00,,---,0.00,VWS V14.01,2013-05-24 15:49:00,
2013-05-24 10:50:00,65.7,51.0,30.27,ENE,77,7.0,12.0,59,0.00,,---,0.00,VWS V14.01,2013-05-24 15:50:00,
2013-05-24 10:52:00,65.6,50.9,30.27,ENE,58,5.0,12.0,59,0.00,,---,0.00,VWS V14.01,2013-05-24 15:52:00,
2013-05-24 10:53:00,65.6,51.4,30.27,NNE,20,2.0,12.0,60,0.00,,---,0.00,VWS V14.01,2013-05-24 15:53:00,
2013-05-24 10:54:00,65.6,51.4,30.27,NE,48,3.0,12.0,60,0.00,,---,0.00,VWS V14.01,2013-05-24 15:54:00,
2013-05-24 10:55:00,65.7,51.9,30.27,ENE,69,4.0,12.0,61,0.00,,---,0.00,VWS V14.01,2013-05-24 15:55:00,
2013-05-24 10:57:00,65.7,51.9,30.27,NW,314,2.0,12.0,61,0.00,,---,0.00,VWS V14.01,2013-05-24 15:57:00,
2013-05-24 10:58:00,65.8,52.0,30.27,ENE,63,2.0,12.0,61,0.00,,---,0.00,VWS V14.01,2013-05-24 15:58:00,
2013-05-24 10:59:00,65.8,52.0,30.27,ENE,76,3.0,12.0,61,0.00,,---,0.00,VWS V14.01,2013-05-24 15:59:00,
2013-05-24 11:00:00,65.9,52.5,30.26,North,352,2.0,12.0,62,0.00,,---,0.00,VWS V14.01,2013-05-24 16:00:00,
2013-05-24 11:02:00,66.2,52.4,30.26,North,353,1.0,4.0,61,0.00,,---,0.00,VWS V14.01,2013-05-24 16:02:00,
2013-05-24 11:04:00,66.4,51.7,30.26,North,358,2.0,9.0,59,0.00,,---,0.00,VWS V14.01,2013-05-24 16:04:00,
2013-05-24 11:05:00,66.4,51.7,30.26,NNW,342,4.0,10.0,59,0.00,,---,0.00,VWS V14.01,2013-05-24 16:05:00,
2013-05-24 11:07:00,66.4,51.7,30.26,NNE,31,4.0,10.0,59,0.00,,---,0.00,VWS V14.01,2013-05-24 16:07:00,
2013-05-24 11:09:00,66.4,51.2,30.26,NNE,21,4.0,10.0,58,0.00,,---,0.00,VWS V14.01,2013-05-24 16:09:00,
2013-05-24 11:10:00,66.3,51.1,30.26,NNE,30,2.0,10.0,58,0.00,,---,0.00,VWS V14.01,2013-05-24 16:10:00,
2013-05-24 11:12:00,66.4,51.2,30.26,NNE,22,3.0,10.0,58,0.00,,---,0.00,VWS V14.01,2013-05-24 16:12:00,
2013-05-24 11:14:00,66.5,51.3,30.26,NE,56,2.0,10.0,58,0.00,,---,0.00,VWS V14.01,2013-05-24 16:14:00,
2013-05-24 11:15:00,66.6,51.4,30.26,NW,306,4.0,11.0,58,0.00,,---,0.00,VWS V14.01,2013-05-24 16:15:00,
2013-05-24 11:16:00,66.5,50.8,30.26,East,80,9.0,11.0,57,0.00,,---,0.00,VWS V14.01,2013-05-24 16:16:00,
2013-05-24 11:18:00,66.4,52.1,30.26,NNE,32,3.0,11.0,60,0.00,,---,0.00,VWS V14.01,2013-05-24 16:18:00,
2013-05-24 11:19:00,66.5,51.3,30.26,ENE,65,3.0,11.0,58,0.00,,---,0.00,VWS V14.01,2013-05-24 16:19:00,
2013-05-24 11:20:00,66.6,51.8,30.26,East,97,5.0,11.0,59,0.00,,---,0.00,VWS V14.01,2013-05-24 16:20:00,
2013-05-24 11:21:00,66.6,51.8,30.26,NNE,26,2.0,11.0,59,0.00,,---,0.00,VWS V14.01,2013-05-24 16:21:00,
2013-05-24 11:23:00,66.9,52.1,30.26,East,80,12.0,12.0,59,0.00,,---,0.00,VWS V14.01,2013-05-24 16:23:00,
2013-05-24 11:24:00,66.8,51.6,30.26,ESE,118,6.0,12.0,58,0.00,,---,0.00,VWS V14.01,2013-05-24 16:24:00,
2013-05-24 11:25:00,66.8,51.1,30.26,ENE,67,5.0,12.0,57,0.00,,---,0.00,VWS V14.01,2013-05-24 16:25:00,
2013-05-24 11:26:00,66.7,51.0,30.26,ENE,63,2.0,12.0,57,0.00,,---,0.00,VWS V14.01,2013-05-24 16:26:00,
2013-05-24 11:28:00,66.7,50.0,30.26,ENE,62,7.0,12.0,55,0.00,,---,0.00,VWS V14.01,2013-05-24 16:28:00,
2013-05-24 11:29:00,66.7,50.0,30.26,ENE,63,5.0,12.0,55,0.00,,---,0.00,VWS V14.01,2013-05-24 16:29:00,
2013-05-24 11:30:00,66.7,50.5,30.26,NE,42,2.0,12.0,56,0.00,,---,0.00,VWS V14.01,2013-05-24 16:30:00,
2013-05-24 11:31:00,66.7,50.5,30.26,NNW,343,2.0,12.0,56,0.00,,---,0.00,VWS V14.01,2013-05-24 16:31:00,
2013-05-24 11:33:00,66.9,50.2,30.26,NW,317,1.0,7.0,55,0.00,,---,0.00,VWS V14.01,2013-05-24 16:33:00,
2013-05-24 11:34:00,67.0,50.3,30.26,NNE,20,2.0,11.0,55,0.00,,---,0.00,VWS V14.01,2013-05-24 16:34:00,
2013-05-24 11:36:00,67.1,51.4,30.27,NNE,22,3.0,11.0,57,0.00,,---,0.00,VWS V14.01,2013-05-24 16:36:00,
2013-05-24 11:39:00,67.5,51.3,30.26,North,4,1.0,11.0,56,0.00,,---,0.00,VWS V14.01,2013-05-24 16:39:00,
2013-05-24 11:40:00,67.7,51.0,30.27,North,11,2.0,11.0,55,0.00,,---,0.00,VWS V14.01,2013-05-24 16:40:00,
2013-05-24 11:41:00,67.9,50.7,30.27,NE,41,4.0,11.0,54,0.00,,---,0.00,VWS V14.01,2013-05-24 16:41:00,
2013-05-24 11:44:00,68.0,51.2,30.26,NNE,13,2.0,11.0,55,0.00,,---,0.00,VWS V14.01,2013-05-24 16:44:00,
2013-05-24 11:45:00,68.1,51.8,30.27,ENE,65,4.0,11.0,56,0.00,,---,0.00,VWS V14.01,2013-05-24 16:45:00,
2013-05-24 11:46:00,68.2,51.9,30.26,ESE,111,4.0,4.0,56,0.00,,---,0.00,VWS V14.01,2013-05-24 16:46:00,
2013-05-24 11:49:00,68.3,51.0,30.27,North,356,4.0,10.0,54,0.00,,---,0.00,VWS V14.01,2013-05-24 16:49:00,
2013-05-24 11:50:00,68.3,51.0,30.27,East,84,4.0,10.0,54,0.00,,---,0.00,VWS V14.01,2013-05-24 16:50:00,
2013-05-24 11:51:00,68.3,51.5,30.27,ENE,67,5.0,11.0,55,0.00,,---,0.00,VWS V14.01,2013-05-24 16:51:00,
2013-05-24 11:54:00,68.1,49.3,30.27,NNE,25,4.0,11.0,51,0.00,,---,0.00,VWS V14.01,2013-05-24 16:54:00,
2013-05-24 11:55:00,68.1,49.8,30.27,NE,34,4.0,11.0,52,0.00,,---,0.00,VWS V14.01,2013-05-24 16:55:00,
2013-05-24 11:56:00,68.1,49.3,30.27,NE,42,4.0,11.0,51,0.00,,---,0.00,VWS V14.01,2013-05-24 16:56:00,
2013-05-24 11:59:00,68.3,49.0,30.27,NNE,24,3.0,11.0,50,0.00,,---,0.00,VWS V14.01,2013-05-24 16:59:00,
2013-05-24 12:00:00,68.4,50.1,30.27,ENE,57,6.0,11.0,52,0.00,,---,0.00,VWS V14.01,2013-05-24 17:00:00,
2013-05-24 12:01:00,68.5,49.7,30.27,North,10,2.0,4.0,51,0.00,,---,0.00,VWS V14.01,2013-05-24 17:01:00,
2013-05-24 12:04:00,68.6,49.2,30.26,NNE,29,2.0,8.0,50,0.00,,---,0.00,VWS V14.01,2013-05-24 17:04:00,
2013-05-24 12:06:00,68.9,51.1,30.26,ESE,119,2.0,8.0,53,0.00,,---,0.00,VWS V14.01,2013-05-24 17:06:00,
2013-05-24 12:09:00,68.8,50.5,30.26,WNW,299,2.0,9.0,52,0.00,,---,0.00,VWS V14.01,2013-05-24 17:09:00,
2013-05-24 12:11:00,69.0,51.2,30.26,NNW,343,2.0,9.0,53,0.00,,---,0.00,VWS V14.01,2013-05-24 17:11:00,
2013-05-24 12:12:00,69.1,51.8,30.26,North,1,2.0,9.0,54,0.00,,---,0.00,VWS V14.01,2013-05-24 17:12:00,
2013-05-24 12:14:00,69.3,51.5,30.26,East,80,4.0,9.0,53,0.00,,---,0.00,VWS V14.01,2013-05-24 17:14:00,
2013-05-24 12:16:00,69.4,52.0,30.26,NNE,20,1.0,4.0,54,0.00,,---,0.00,VWS V14.01,2013-05-24 17:16:00,
2013-05-24 12:17:00,69.4,52.0,30.26,East,96,7.0,7.0,54,0.00,,---,0.00,VWS V14.01,2013-05-24 17:17:00,
2013-05-24 12:19:00,69.3,50.9,30.26,NNE,24,1.0,10.0,52,0.00,,---,0.00,VWS V14.01,2013-05-24 17:19:00,
2013-05-24 12:21:00,69.3,52.0,30.26,East,79,3.0,10.0,54,0.00,,---,0.00,VWS V14.01,2013-05-24 17:21:00,
2013-05-24 12:22:00,69.4,53.0,30.26,East,91,7.0,10.0,56,0.00,,---,0.00,VWS V14.01,2013-05-24 17:22:00,
2013-05-24 12:23:00,69.4,53.0,30.26,East,91,3.0,10.0,56,0.00,,---,0.00,VWS V14.01,2013-05-24 17:23:00,
2013-05-24 12:24:00,69.4,51.0,30.26,NNE,27,3.0,10.0,52,0.00,,---,0.00,VWS V14.01,2013-05-24 17:24:00,
2013-05-24 12:26:00,69.5,51.6,30.26,North,351,4.0,10.0,53,0.00,,---,0.00,VWS V14.01,2013-05-24 17:26:00,
2013-05-24 12:27:00,69.5,50.1,30.26,NNE,21,2.0,10.0,50,0.00,,---,0.00,VWS V14.01,2013-05-24 17:27:00,
2013-05-24 12:28:00,69.6,51.2,30.26,NNE,32,2.0,10.0,52,0.00,,---,0.00,VWS V14.01,2013-05-24 17:28:00,
2013-05-24 12:29:00,69.6,50.7,30.26,North,352,2.0,10.0,51,0.00,,---,0.00,VWS V14.01,2013-05-24 17:29:00,
2013-05-24 12:32:00,69.7,50.8,30.26,NNE,27,1.0,7.0,51,0.00,,---,0.00,VWS V14.01,2013-05-24 17:32:00,
2013-05-24 12:33:00,69.7,50.8,30.26,NNE,15,2.0,7.0,51,0.00,,---,0.00,VWS V14.01,2013-05-24 17:33:00,
2013-05-24 12:35:00,69.7,50.2,30.26,ESE,119,4.0,7.0,50,0.00,,---,0.00,VWS V14.01,2013-05-24 17:35:00,
2013-05-24 12:37:00,69.7,50.2,30.26,NE,41,2.0,7.0,50,0.00,,---,0.00,VWS V14.01,2013-05-24 17:37:00,
2013-05-24 12:38:00,69.7,50.8,30.26,North,3,3.0,7.0,51,0.00,,---,0.00,VWS V14.01,2013-05-24 17:38:00,
2013-05-24 12:40:00,69.8,51.4,30.26,NNE,13,3.0,7.0,52,0.00,,---,0.00,VWS V14.01,2013-05-24 17:40:00,
2013-05-24 12:42:00,69.8,50.3,30.26,North,357,2.0,7.0,50,0.00,,---,0.00,VWS V14.01,2013-05-24 17:42:00,
2013-05-24 12:43:00,69.8,50.9,30.26,North,353,2.0,7.0,51,0.00,,---,0.00,VWS V14.01,2013-05-24 17:43:00,
2013-05-24 12:45:00,70.0,51.6,30.26,NW,321,2.0,7.0,52,0.00,,---,0.00,VWS V14.01,2013-05-24 17:45:00,
2013-05-24 12:47:00,70.2,51.8,30.26,North,10,4.0,4.0,52,0.00,,---,0.00,VWS V14.01,2013-05-24 17:47:00,
2013-05-24 12:48:00,70.3,50.8,30.26,NNE,32,2.0,5.0,50,0.00,,---,0.00,VWS V14.01,2013-05-24 17:48:00,
2013-05-24 12:50:00,70.4,51.4,30.26,North,8,2.0,6.0,51,0.00,,---,0.00,VWS V14.01,2013-05-24 17:50:00,
2013-05-24 12:52:00,70.5,51.5,30.26,NNE,14,2.0,6.0,51,0.00,,---,0.00,VWS V14.01,2013-05-24 17:52:00,
2013-05-24 12:53:00,70.5,51.5,30.26,ENE,67,2.0,6.0,51,0.00,,---,0.00,VWS V14.01,2013-05-24 17:53:00,
2013-05-24 12:55:00,70.4,50.9,30.26,North,354,2.0,14.0,50,0.00,,---,0.00,VWS V14.01,2013-05-24 17:55:00,
2013-05-24 12:57:00,70.3,50.8,30.26,NW,326,3.0,14.0,50,0.00,,---,0.00,VWS V14.01,2013-05-24 17:57:00,
2013-05-24 12:58:00,70.3,51.3,30.26,North,350,3.0,14.0,51,0.00,,---,0.00,VWS V14.01,2013-05-24 17:58:00,
2013-05-24 13:01:00,70.3,49.7,30.26,NE,41,2.0,10.0,48,0.00,,---,0.00,VWS V14.01,2013-05-24 18:01:00,
2013-05-24 13:02:00,70.3,50.3,30.26,ENE,62,7.0,10.0,49,0.00,,---,0.00,VWS V14.01,2013-05-24 18:02:00,
2013-05-24 13:03:00,70.2,50.7,30.26,ENE,65,5.0,10.0,50,0.00,,---,0.00,VWS V14.01,2013-05-24 18:03:00,
2013-05-24 13:06:00,70.3,50.8,30.26,ESE,105,1.0,10.0,50,0.00,,---,0.00,VWS V14.01,2013-05-24 18:06:00,
2013-05-24 13:07:00,70.3,50.3,30.26,NE,34,0.0,10.0,49,0.00,,---,0.00,VWS V14.01,2013-05-24 18:07:00,
2013-05-24 13:08:00,70.3,51.3,30.26,ENE,62,3.0,10.0,51,0.00,,---,0.00,VWS V14.01,2013-05-24 18:08:00,
2013-05-24 13:09:00,70.4,51.4,30.26,ENE,59,4.0,10.0,51,0.00,,---,0.00,VWS V14.01,2013-05-24 18:09:00,
2013-05-24 13:11:00,70.6,51.6,30.26,NE,35,2.0,10.0,51,0.00,,---,0.00,VWS V14.01,2013-05-24 18:11:00,
2013-05-24 13:13:00,70.8,52.3,30.26,East,79,3.0,10.0,52,0.00,,---,0.00,VWS V14.01,2013-05-24 18:13:00,
2013-05-24 13:14:00,70.9,51.3,30.26,ENE,72,3.0,10.0,50,0.00,,---,0.00,VWS V14.01,2013-05-24 18:14:00,
2013-05-24 13:16:00,71.1,52.6,30.26,NNW,329,2.0,4.0,52,0.00,,---,0.00,VWS V14.01,2013-05-24 18:16:00,
2013-05-24 13:18:00,71.1,51.5,30.26,NE,39,2.0,4.0,50,0.00,,---,0.00,VWS V14.01,2013-05-24 18:18:00,
2013-05-24 13:19:00,71.1,50.4,30.25,NNE,22,4.0,9.0,48,0.00,,---,0.00,VWS V14.01,2013-05-24 18:19:00,
2013-05-24 13:22:00,71.0,52.0,30.25,NNE,17,3.0,9.0,51,0.00,,---,0.00,VWS V14.01,2013-05-24 18:22:00,
2013-05-24 13:23:00,71.1,51.0,30.25,NNE,13,2.0,9.0,49,0.00,,---,0.00,VWS V14.01,2013-05-24 18:23:00,
2013-05-24 13:24:00,71.2,51.6,30.25,NNE,20,2.0,9.0,50,0.00,,---,0.00,VWS V14.01,2013-05-24 18:24:00,
2013-05-24 13:27:00,71.4,50.7,30.25,East,79,2.0,9.0,48,0.00,,---,0.00,VWS V14.01,2013-05-24 18:27:00,
2013-05-24 13:28:00,71.4,50.7,30.25,East,83,3.0,9.0,48,0.00,,---,0.00,VWS V14.01,2013-05-24 18:28:00,
2013-05-24 13:29:00,71.4,50.7,30.25,NE,35,2.0,9.0,48,0.00,,---,0.00,VWS V14.01,2013-05-24 18:29:00,
2013-05-24 13:33:00,71.2,51.6,30.25,ENE,70,3.0,7.0,50,0.00,,---,0.00,VWS V14.01,2013-05-24 18:33:00,
2013-05-24 13:34:00,71.2,51.6,30.25,NNW,337,3.0,7.0,50,0.00,,---,0.00,VWS V14.01,2013-05-24 18:34:00,
2013-05-24 13:38:00,71.2,50.5,30.25,East,82,1.0,8.0,48,0.00,,---,0.00,VWS V14.01,2013-05-24 18:38:00,
2013-05-24 13:39:00,71.2,52.2,30.25,NNW,345,1.0,8.0,51,0.00,,---,0.00,VWS V14.01,2013-05-24 18:39:00,
2013-05-24 13:43:00,71.5,51.9,30.25,NNW,330,2.0,10.0,50,0.00,,---,0.00,VWS V14.01,2013-05-24 18:43:00,
2013-05-24 13:44:00,71.5,51.9,30.25,NW,323,2.0,10.0,50,0.00,,---,0.00,VWS V14.01,2013-05-24 18:44:00,
2013-05-24 13:45:00,71.5,51.9,30.24,NW,323,1.0,10.0,50,0.00,,---,0.00,VWS V14.01,2013-05-24 18:45:00,
2013-05-24 13:48:00,71.9,52.3,30.25,North,4,4.0,9.0,50,0.00,,---,0.00,VWS V14.01,2013-05-24 18:48:00,
2013-05-24 13:49:00,72.2,52.5,30.24,ENE,61,3.0,9.0,50,0.00,,---,0.00,VWS V14.01,2013-05-24 18:49:00,
2013-05-24 13:50:00,72.2,52.5,30.24,ENE,62,2.0,9.0,50,0.00,,---,0.00,VWS V14.01,2013-05-24 18:50:00,
2013-05-24 13:53:00,72.4,51.6,30.24,North,359,3.0,9.0,48,0.00,,---,0.00,VWS V14.01,2013-05-24 18:53:00,
2013-05-24 13:54:00,72.4,52.2,30.24,ENE,75,4.0,9.0,49,0.00,,---,0.00,VWS V14.01,2013-05-24 18:54:00,
2013-05-24 13:55:00,72.4,52.2,30.24,East,98,3.0,9.0,49,0.00,,---,0.00,VWS V14.01,2013-05-24 18:55:00,
2013-05-24 13:58:00,72.4,51.6,30.24,NNE,24,3.0,9.0,48,0.00,,---,0.00,VWS V14.01,2013-05-24 18:58:00,
2013-05-24 13:59:00,72.4,51.0,30.24,North,1,2.0,9.0,47,0.00,,---,0.00,VWS V14.01,2013-05-24 18:59:00,
2013-05-24 14:00:00,72.5,51.7,30.25,North,352,3.0,9.0,48,0.00,,---,0.00,VWS V14.01,2013-05-24 19:00:00,
2013-05-24 14:03:00,72.7,51.9,30.25,ENE,57,0.0,9.0,48,0.00,,---,0.00,VWS V14.01,2013-05-24 19:03:00,
2013-05-24 14:04:00,72.7,51.9,30.25,East,79,3.0,9.0,48,0.00,,---,0.00,VWS V14.01,2013-05-24 19:04:00,
2013-05-24 14:05:00,72.8,50.8,30.24,NNE,15,2.0,9.0,46,0.00,,---,0.00,VWS V14.01,2013-05-24 19:05:00,
2013-05-24 14:08:00,72.8,50.2,30.25,North,356,6.0,9.0,45,0.00,,---,0.00,VWS V14.01,2013-05-24 19:08:00,
2013-05-24 14:09:00,72.7,50.2,30.24,North,359,1.0,9.0,45,0.00,,---,0.00,VWS V14.01,2013-05-24 19:09:00,
2013-05-24 14:10:00,72.7,51.3,30.24,East,94,2.0,9.0,47,0.00,,---,0.00,VWS V14.01,2013-05-24 19:10:00,
2013-05-24 14:13:00,72.9,49.1,30.24,East,94,3.0,9.0,43,0.00,,---,0.00,VWS V14.01,2013-05-24 19:13:00,
2013-05-24 14:14:00,72.8,49.0,30.24,East,98,7.0,9.0,43,0.00,,---,0.00,VWS V14.01,2013-05-24 19:14:00,
2013-05-24 14:15:00,72.7,49.5,30.24,ESE,105,1.0,9.0,44,0.00,,---,0.00,VWS V14.01,2013-05-24 19:15:00,
2013-05-24 14:18:00,73.0,51.6,30.24,ENE,74,6.0,6.0,47,0.00,,---,0.00,VWS V14.01,2013-05-24 19:18:00,
2013-05-24 14:19:00,73.1,51.7,30.24,WNW,292,2.0,6.0,47,0.00,,---,0.00,VWS V14.01,2013-05-24 19:19:00,
2013-05-24 14:20:00,73.1,51.1,30.24,WNW,291,1.0,6.0,46,0.00,,---,0.00,VWS V14.01,2013-05-24 19:20:00,
2013-05-24 14:23:00,73.4,52.5,30.24,NNE,31,5.0,6.0,48,0.00,,---,0.00,VWS V14.01,2013-05-24 19:23:00,
2013-05-24 14:24:00,73.4,51.4,30.24,North,349,4.0,6.0,46,0.00,,---,0.00,VWS V14.01,2013-05-24 19:24:00,
2013-05-24 14:25:00,73.4,51.4,30.24,NW,321,1.0,6.0,46,0.00,,---,0.00,VWS V14.01,2013-05-24 19:25:00,
2013-05-24 14:28:00,73.6,52.2,30.24,ENE,73,3.0,6.0,47,0.00,,---,0.00,VWS V14.01,2013-05-24 19:28:00,
2013-05-24 14:29:00,73.6,51.6,30.24,NE,48,4.0,6.0,46,0.00,,---,0.00,VWS V14.01,2013-05-24 19:29:00,
2013-05-24 14:30:00,73.6,51.6,30.24,East,100,2.0,8.0,46,0.00,,---,0.00,VWS V14.01,2013-05-24 19:30:00,
2013-05-24 14:33:00,73.6,51.0,30.24,ENE,67,4.0,4.0,45,0.00,,---,0.00,VWS V14.01,2013-05-24 19:33:00,
2013-05-24 14:34:00,73.6,51.0,30.24,East,97,2.0,4.0,45,0.00,,---,0.00,VWS V14.01,2013-05-24 19:34:00,
2013-05-24 14:35:00,73.6,50.4,30.24,North,360,3.0,4.0,44,0.00,,---,0.00,VWS V14.01,2013-05-24 19:35:00,
2013-05-24 14:39:00,74.1,52.6,30.24,East,98,3.0,4.0,47,0.00,,---,0.00,VWS V14.01,2013-05-24 19:39:00,
2013-05-24 14:40:00,74.1,50.2,30.24,East,90,8.0,8.0,43,0.00,,---,0.00,VWS V14.01,2013-05-24 19:40:00,
2013-05-24 14:41:00,74.0,50.1,30.24,North,360,4.0,8.0,43,0.00,,---,0.00,VWS V14.01,2013-05-24 19:41:00,
2013-05-24 14:44:00,73.8,51.2,30.24,NNE,31,2.0,8.0,45,0.00,,---,0.00,VWS V14.01,2013-05-24 19:44:00,
2013-05-24 14:45:00,73.8,51.8,30.24,North,1,2.0,8.0,46,0.00,,---,0.00,VWS V14.01,2013-05-24 19:45:00,
2013-05-24 14:46:00,73.8,51.8,30.23,SE,134,2.0,2.0,46,0.00,,---,0.00,VWS V14.01,2013-05-24 19:46:00,
2013-05-24 14:49:00,74.0,51.9,30.23,North,359,1.0,6.0,46,0.00,,---,0.00,VWS V14.01,2013-05-24 19:49:00,
2013-05-24 14:50:00,74.1,52.0,30.23,North,1,1.0,6.0,46,0.00,,---,0.00,VWS V14.01,2013-05-24 19:50:00,
2013-05-24 14:51:00,74.2,53.8,30.24,NNW,345,3.0,6.0,49,0.00,,---,0.00,VWS V14.01,2013-05-24 19:51:00,
2013-05-24 14:54:00,74.6,52.5,30.24,North,11,2.0,6.0,46,0.00,,---,0.00,VWS V14.01,2013-05-24 19:54:00,
2013-05-24 14:55:00,74.7,52.6,30.24,ESE,112,1.0,6.0,46,0.00,,---,0.00,VWS V14.01,2013-05-24 19:55:00,
2013-05-24 14:56:00,74.6,51.9,30.24,North,356,2.0,11.0,45,0.00,,---,0.00,VWS V14.01,2013-05-24 19:56:00,
2013-05-24 14:59:00,74.5,51.2,30.24,NNW,344,2.0,11.0,44,0.00,,---,0.00,VWS V14.01,2013-05-24 19:59:00,
2013-05-24 15:00:00,74.5,51.8,30.24,ENE,59,4.0,11.0,45,0.00,,---,0.00,VWS V14.01,2013-05-24 20:00:00,
2013-05-24 15:01:00,74.4,51.1,30.24,NNW,346,1.0,2.0,44,0.00,,---,0.00,VWS V14.01,2013-05-24 20:01:00,
2013-05-24 15:04:00,74.4,52.9,30.24,NNW,332,1.0,4.0,47,0.00,,---,0.00,VWS V14.01,2013-05-24 20:04:00,
2013-05-24 15:05:00,74.4,52.9,30.24,East,79,5.0,6.0,47,0.00,,---,0.00,VWS V14.01,2013-05-24 20:05:00,
2013-05-24 15:06:00,74.3,51.0,30.24,SE,125,2.0,8.0,44,0.00,,---,0.00,VWS V14.01,2013-05-24 20:06:00,
2013-05-24 15:07:00,74.3,51.0,30.24,ENE,72,4.0,8.0,44,0.00,,---,0.00,VWS V14.01,2013-05-24 20:07:00,
2013-05-24 15:09:00,74.4,53.5,30.23,NNW,344,1.0,8.0,48,0.00,,---,0.00,VWS V14.01,2013-05-24 20:09:00,
2013-05-24 15:10:00,74.5,53.0,30.23,ENE,58,1.0,8.0,47,0.00,,---,0.00,VWS V14.01,2013-05-24 20:10:00,
2013-05-24 15:11:00,74.7,52.6,30.24,East,91,1.0,8.0,46,0.00,,---,0.00,VWS V14.01,2013-05-24 20:11:00,
2013-05-24 15:12:00,74.8,52.7,30.24,ESE,105,2.0,8.0,46,0.00,,---,0.00,VWS V14.01,2013-05-24 20:12:00,
2013-05-24 15:14:00,74.9,52.2,30.24,WSW,242,3.0,8.0,45,0.00,,---,0.00,VWS V14.01,2013-05-24 20:14:00,
2013-05-24 15:15:00,74.9,52.2,30.24,WSW,242,2.0,8.0,45,0.00,,---,0.00,VWS V14.01,2013-05-24 20:15:00,
2013-05-24 15:16:00,75.1,51.7,30.24,NNE,27,2.0,5.0,44,0.00,,---,0.00,VWS V14.01,2013-05-24 20:16:00,
2013-05-24 15:17:00,75.2,51.2,30.24,East,84,3.0,7.0,43,0.00,,---,0.00,VWS V14.01,2013-05-24 20:17:00,
2013-05-24 15:19:00,75.2,51.2,30.23,WNW,290,1.0,7.0,43,0.00,,---,0.00,VWS V14.01,2013-05-24 20:19:00,
2013-05-24 15:20:00,75.2,51.2,30.23,WNW,290,0.0,7.0,43,0.00,,---,0.00,VWS V14.01,2013-05-24 20:20:00,
2013-05-24 15:21:00,75.2,51.2,30.23,NE,46,4.0,7.0,43,0.00,,---,0.00,VWS V14.01,2013-05-24 20:21:00,
2013-05-24 15:22:00,75.2,51.2,30.23,North,11,2.0,7.0,43,0.00,,---,0.00,VWS V14.01,2013-05-24 20:22:00,
2013-05-24 15:25:00,75.3,51.3,30.23,ENE,76,4.0,7.0,43,0.00,,---,0.00,VWS V14.01,2013-05-24 20:25:00,
2013-05-24 15:26:00,75.3,51.3,30.24,North,354,3.0,7.0,43,0.00,,---,0.00,VWS V14.01,2013-05-24 20:26:00,
2013-05-24 15:27:00,75.3,50.0,30.24,NE,51,2.0,7.0,41,0.00,,---,0.00,VWS V14.01,2013-05-24 20:27:00,
2013-05-24 15:30:00,75.1,50.5,30.24,North,354,1.0,7.0,42,0.00,,---,0.00,VWS V14.01,2013-05-24 20:30:00,
2013-05-24 15:31:00,75.1,50.5,30.23,East,86,1.0,3.0,42,0.00,,---,0.00,VWS V14.01,2013-05-24 20:31:00,
2013-05-24 15:32:00,75.1,51.7,30.23,NNW,335,3.0,3.0,44,0.00,,---,0.00,VWS V14.01,2013-05-24 20:32:00,
2013-05-24 15:33:00,75.1,49.8,30.23,North,7,3.0,3.0,41,0.00,,---,0.00,VWS V14.01,2013-05-24 20:33:00,
2013-05-24 15:35:00,75.1,50.5,30.23,NNE,17,3.0,4.0,42,0.00,,---,0.00,VWS V14.01,2013-05-24 20:35:00,
2013-05-24 15:36:00,75.1,49.8,30.23,NNW,328,1.0,4.0,41,0.00,,---,0.00,VWS V14.01,2013-05-24 20:36:00,
2013-05-24 15:38:00,75.1,49.8,30.23,North,354,1.0,5.0,41,0.00,,---,0.00,VWS V14.01,2013-05-24 20:38:00,
2013-05-24 15:40:00,75.2,49.9,30.24,NNE,24,1.0,7.0,41,0.00,,---,0.00,VWS V14.01,2013-05-24 20:40:00,
2013-05-24 15:41:00,75.1,49.8,30.24,North,8,3.0,7.0,41,0.00,,---,0.00,VWS V14.01,2013-05-24 20:41:00,
2013-05-24 15:43:00,75.2,51.8,30.23,ENE,74,2.0,7.0,44,0.00,,---,0.00,VWS V14.01,2013-05-24 20:43:00,
2013-05-24 15:45:00,75.2,50.6,30.24,NW,323,1.0,9.0,42,0.00,,---,0.00,VWS V14.01,2013-05-24 20:45:00,
2013-05-24 15:46:00,75.2,50.6,30.23,North,354,2.0,2.0,42,0.00,,---,0.00,VWS V14.01,2013-05-24 20:46:00,
2013-05-24 15:48:00,75.5,51.5,30.23,North,349,1.0,2.0,43,0.00,,---,0.00,VWS V14.01,2013-05-24 20:48:00,
2013-05-24 15:50:00,75.7,51.6,30.23,North,352,1.0,3.0,43,0.00,,---,0.00,VWS V14.01,2013-05-24 20:50:00,
2013-05-24 15:51:00,75.7,51.6,30.23,NE,41,2.0,4.0,43,0.00,,---,0.00,VWS V14.01,2013-05-24 20:51:00,
2013-05-24 15:53:00,75.7,50.4,30.23,ESE,105,3.0,4.0,41,0.00,,---,0.00,VWS V14.01,2013-05-24 20:53:00,
2013-05-24 15:55:00,75.5,51.5,30.23,ESE,105,5.0,5.0,43,0.00,,---,0.00,VWS V14.01,2013-05-24 20:55:00,
2013-05-24 15:56:00,75.4,50.1,30.23,NE,35,2.0,6.0,41,0.00,,---,0.00,VWS V14.01,2013-05-24 20:56:00,
2013-05-24 15:58:00,75.2,51.2,30.23,SE,134,3.0,6.0,43,0.00,,---,0.00,VWS V14.01,2013-05-24 20:58:00,
2013-05-24 16:01:00,75.1,50.5,30.23,ENE,63,4.0,4.0,42,0.00,,---,0.00,VWS V14.01,2013-05-24 21:01:00,
2013-05-24 16:02:00,75.1,51.1,30.23,North,352,2.0,4.0,43,0.00,,---,0.00,VWS V14.01,2013-05-24 21:02:00,
2013-05-24 16:03:00,75.2,50.6,30.23,NNW,344,2.0,4.0,42,0.00,,---,0.00,VWS V14.01,2013-05-24 21:03:00,
2013-05-24 16:06:00,75.1,49.2,30.23,ENE,76,5.0,7.0,40,0.00,,---,0.00,VWS V14.01,2013-05-24 21:06:00,
2013-05-24 16:07:00,75.1,49.2,30.23,North,10,3.0,7.0,40,0.00,,---,0.00,VWS V14.01,2013-05-24 21:07:00,
2013-05-24 16:08:00,74.9,49.6,30.23,East,89,4.0,11.0,41,0.00,,---,0.00,VWS V14.01,2013-05-24 21:08:00,
2013-05-24 16:09:00,74.9,49.6,30.23,North,352,2.0,11.0,41,0.00,,---,0.00,VWS V14.01,2013-05-24 21:09:00,
2013-05-24 16:11:00,74.8,50.2,30.23,NE,37,1.0,11.0,42,0.00,,---,0.00,VWS V14.01,2013-05-24 21:11:00,
2013-05-24 16:12:00,74.8,50.2,30.23,ENE,72,3.0,11.0,42,0.00,,---,0.00,VWS V14.01,2013-05-24 21:12:00,
2013-05-24 16:14:00,74.8,50.2,30.22,North,352,2.0,11.0,42,0.00,,---,0.00,VWS V14.01,2013-05-24 21:14:00,
2013-05-24 16:16:00,74.9,50.0,30.22,NNE,27,3.0,10.0,42,0.00,,,0.00,weatherlink.com 1.10,2013-05-24 21:16:00,
2013-05-24 16:17:00,74.9,50.3,30.22,NNW,346,2.0,6.0,42,0.00,,---,0.00,VWS V14.01,2013-05-24 21:17:00,
2013-05-24 16:19:00,74.9,50.3,30.22,NE,41,3.0,7.0,42,0.00,,---,0.00,VWS V14.01,2013-05-24 21:19:00,
2013-05-24 16:21:00,74.9,50.9,30.22,NE,41,3.0,7.0,43,0.00,,---,0.00,VWS V14.01,2013-05-24 21:21:00,
2013-05-24 16:22:00,74.9,50.9,30.23,ENE,72,4.0,7.0,43,0.00,,---,0.00,VWS V14.01,2013-05-24 21:22:00,
2013-05-24 16:24:00,74.8,48.9,30.22,NE,41,2.0,7.0,40,0.00,,---,0.00,VWS V14.01,2013-05-24 21:24:00,
2013-05-24 16:27:00,74.8,49.5,30.23,North,8,2.0,7.0,41,0.00,,---,0.00,VWS V14.01,2013-05-24 21:27:00,
2013-05-24 16:29:00,74.9,49.6,30.23,NNE,22,4.0,7.0,41,0.00,,---,0.00,VWS V14.01,2013-05-24 21:29:00,
2013-05-24 16:30:00,75.0,49.7,30.22,NNE,13,3.0,7.0,41,0.00,,---,0.00,VWS V14.01,2013-05-24 21:30:00,
2013-05-24 16:32:00,75.0,49.7,30.22,NE,35,4.0,5.0,41,0.00,,---,0.00,VWS V14.01,2013-05-24 21:32:00,
2013-05-24 16:34:00,74.9,49.0,30.23,NE,55,5.0,9.0,40,0.00,,---,0.00,VWS V14.01,2013-05-24 21:34:00,
2013-05-24 16:35:00,74.8,49.5,30.22,East,79,5.0,9.0,41,0.00,,---,0.00,VWS V14.01,2013-05-24 21:35:00,
2013-05-24 16:37:00,74.7,49.5,30.22,East,82,1.0,9.0,41,0.00,,---,0.00,VWS V14.01,2013-05-24 21:37:00,
2013-05-24 16:39:00,74.7,49.5,30.22,ENE,67,1.0,9.0,41,0.00,,---,0.00,VWS V14.01,2013-05-24 21:39:00,
2013-05-24 16:40:00,74.7,50.1,30.22,North,349,1.0,9.0,42,0.00,,---,0.00,VWS V14.01,2013-05-24 21:40:00,
2013-05-24 16:42:00,74.7,50.1,30.22,NE,45,3.0,9.0,42,0.00,,---,0.00,VWS V14.01,2013-05-24 21:42:00,
2013-05-24 16:44:00,74.8,50.2,30.22,North,360,2.0,9.0,42,0.00,,---,0.00,VWS V14.01,2013-05-24 21:44:00,
2013-05-24 16:45:00,74.8,50.8,30.22,East,96,2.0,9.0,43,0.00,,---,0.00,VWS V14.01,2013-05-24 21:45:00,
2013-05-24 16:47:00,74.9,50.3,30.22,East,89,3.0,5.0,42,0.00,,---,0.00,VWS V14.01,2013-05-24 21:47:00,
2013-05-24 16:48:00,74.9,50.3,30.22,NNW,340,2.0,5.0,42,0.00,,---,0.00,VWS V14.01,2013-05-24 21:48:00,
2013-05-24 16:50:00,74.9,50.3,30.21,ESE,114,2.0,5.0,42,0.00,,---,0.00,VWS V14.01,2013-05-24 21:50:00,
2013-05-24 16:52:00,74.9,51.5,30.21,NNE,24,3.0,5.0,44,0.00,,---,0.00,VWS V14.01,2013-05-24 21:52:00,
2013-05-24 16:53:00,75.0,51.0,30.21,North,360,2.0,5.0,43,0.00,,---,0.00,VWS V14.01,2013-05-24 21:53:00,
2013-05-24 16:55:00,74.9,50.3,30.21,ESE,103,2.0,8.0,42,0.00,,---,0.00,VWS V14.01,2013-05-24 21:55:00,
2013-05-24 16:57:00,74.9,50.3,30.21,East,101,1.0,8.0,42,0.00,,---,0.00,VWS V14.01,2013-05-24 21:57:00,
2013-05-24 16:58:00,74.9,50.9,30.21,East,80,2.0,8.0,43,0.00,,---,0.00,VWS V14.01,2013-05-24 21:58:00,
2013-05-24 17:00:00,74.9,50.3,30.21,NNW,347,3.0,8.0,42,0.00,,---,0.00,VWS V14.01,2013-05-24 22:00:00,
2013-05-24 17:03:00,74.8,49.5,30.21,NE,42,3.0,7.0,41,0.00,,---,0.00,VWS V14.01,2013-05-24 22:03:00,
2013-05-24 17:05:00,74.8,50.8,30.21,North,352,1.0,7.0,43,0.00,,---,0.00,VWS V14.01,2013-05-24 22:05:00,
2013-05-24 17:08:00,74.9,50.3,30.21,East,101,1.0,7.0,42,0.00,,---,0.00,VWS V14.01,2013-05-24 22:08:00,
2013-05-24 17:10:00,75.0,51.0,30.21,ENE,69,7.0,7.0,43,0.00,,---,0.00,VWS V14.01,2013-05-24 22:10:00,
2013-05-24 17:11:00,75.0,51.0,30.21,East,100,3.0,7.0,43,0.00,,---,0.00,VWS V14.01,2013-05-24 22:11:00,
2013-05-24 17:13:00,74.8,50.2,30.21,East,86,3.0,8.0,42,0.00,,---,0.00,VWS V14.01,2013-05-24 22:13:00,
2013-05-24 17:15:00,74.8,50.2,30.21,NNE,29,4.0,8.0,42,0.00,,---,0.00,VWS V14.01,2013-05-24 22:15:00,
2013-05-24 17:16:00,74.7,50.7,30.21,ENE,65,3.0,3.0,43,0.00,,---,0.00,VWS V14.01,2013-05-24 22:16:00,
2013-05-24 17:18:00,74.5,49.9,30.20,NE,53,2.0,7.0,42,0.00,,---,0.00,VWS V14.01,2013-05-24 22:18:00,
2013-05-24 17:20:00,74.5,51.2,30.20,North,354,2.0,7.0,44,0.00,,---,0.00,VWS V14.01,2013-05-24 22:20:00,
2013-05-24 17:21:00,74.5,51.2,30.20,North,352,1.0,7.0,44,0.00,,---,0.00,VWS V14.01,2013-05-24 22:21:00,
2013-05-24 17:23:00,74.6,50.7,30.20,North,10,1.0,9.0,43,0.00,,---,0.00,VWS V14.01,2013-05-24 22:23:00,
2013-05-24 17:24:00,74.6,50.0,30.20,ENE,63,4.0,9.0,42,0.00,,---,0.00,VWS V14.01,2013-05-24 22:24:00,
2013-05-24 17:25:00,74.5,50.6,30.20,ESE,107,2.0,9.0,43,0.00,,---,0.00,VWS V14.01,2013-05-24 22:25:00,
2013-05-24 17:26:00,74.5,49.9,30.20,NNE,31,2.0,9.0,42,0.00,,---,0.00,VWS V14.01,2013-05-24 22:26:00,
2013-05-24 17:28:00,74.5,49.9,30.20,ESE,107,2.0,9.0,42,0.00,,---,0.00,VWS V14.01,2013-05-24 22:28:00,
2013-05-24 17:29:00,74.5,49.9,30.20,ENE,60,3.0,9.0,42,0.00,,---,0.00,VWS V14.01,2013-05-24 22:29:00,
2013-05-24 17:30:00,74.5,51.2,30.20,North,1,2.0,9.0,44,0.00,,---,0.00,VWS V14.01,2013-05-24 22:30:00,
2013-05-24 17:31:00,74.5,50.6,30.20,ENE,60,4.0,4.0,43,0.00,,---,0.00,VWS V14.01,2013-05-24 22:31:00,
2013-05-24 17:34:00,74.4,49.8,30.20,ENE,74,2.0,10.0,42,0.00,,---,0.00,VWS V14.01,2013-05-24 22:34:00,
2013-05-24 17:35:00,74.4,49.8,30.19,ENE,60,3.0,10.0,42,0.00,,---,0.00,VWS V14.01,2013-05-24 22:35:00,
2013-05-24 17:36:00,74.4,50.5,30.19,North,357,1.0,10.0,43,0.00,,---,0.00,VWS V14.01,2013-05-24 22:36:00,
2013-05-24 17:39:00,74.4,50.5,30.19,NE,55,3.0,10.0,43,0.00,,---,0.00,VWS V14.01,2013-05-24 22:39:00,
2013-05-24 17:40:00,74.4,50.5,30.19,North,2,2.0,10.0,43,0.00,,---,0.00,VWS V14.01,2013-05-24 22:40:00,
2013-05-24 17:41:00,74.4,49.2,30.19,North,350,2.0,10.0,41,0.00,,---,0.00,VWS V14.01,2013-05-24 22:41:00,
2013-05-24 17:44:00,74.4,49.2,30.18,NNW,333,1.0,10.0,41,0.00,,---,0.00,VWS V14.01,2013-05-24 22:44:00,
2013-05-24 17:46:00,74.4,49.8,30.18,West,273,1.0,1.0,42,0.00,,---,0.00,VWS V14.01,2013-05-24 22:46:00,
2013-05-24 17:47:00,74.5,50.6,30.19,WNW,282,1.0,1.0,43,0.00,,---,0.00,VWS V14.01,2013-05-24 22:47:00,
2013-05-24 17:49:00,74.6,50.7,30.19,North,360,1.0,3.0,43,0.00,,---,0.00,VWS V14.01,2013-05-24 22:49:00,
2013-05-24 17:51:00,74.5,49.9,30.19,East,82,10.0,10.0,42,0.00,,---,0.00,VWS V14.01,2013-05-24 22:51:00,
2013-05-24 17:52:00,74.4,49.2,30.18,ENE,72,5.0,10.0,41,0.00,,---,0.00,VWS V14.01,2013-05-24 22:52:00,
2013-05-24 17:54:00,74.2,49.7,30.19,East,88,3.0,10.0,42,0.00,,---,0.00,VWS V14.01,2013-05-24 22:54:00,
2013-05-24 17:55:00,74.1,50.2,30.19,NE,46,2.0,10.0,43,0.00,,---,0.00,VWS V14.01,2013-05-24 22:55:00,
2013-05-24 17:56:00,74.0,50.1,30.19,ESE,106,2.0,10.0,43,0.00,,---,0.00,VWS V14.01,2013-05-24 22:56:00,
2013-05-24 17:57:00,74.0,50.1,30.19,North,359,3.0,10.0,43,0.00,,---,0.00,VWS V14.01,2013-05-24 22:57:00,
2013-05-24 17:59:00,73.9,50.6,30.19,North,1,2.0,10.0,44,0.00,,---,0.00,VWS V14.01,2013-05-24 22:59:00,
2013-05-24 18:00:00,73.9,50.6,30.19,North,353,3.0,10.0,44,0.00,,---,0.00,VWS V14.01,2013-05-24 23:00:00,
2013-05-24 18:01:00,73.9,50.6,30.19,North,354,1.0,3.0,44,0.00,,---,0.00,VWS V14.01,2013-05-24 23:01:00,
2013-05-24 18:02:00,73.9,50.0,30.18,NNE,21,3.0,3.0,43,0.00,,---,0.00,VWS V14.01,2013-05-24 23:02:00,
2013-05-24 18:04:00,73.8,50.5,30.18,NE,34,2.0,4.0,44,0.00,,---,0.00,VWS V14.01,2013-05-24 23:04:00,
2013-05-24 18:05:00,73.8,50.5,30.18,East,80,4.0,4.0,44,0.00,,---,0.00,VWS V14.01,2013-05-24 23:05:00,
2013-05-24 18:06:00,73.8,49.9,30.18,SE,135,7.0,8.0,43,0.00,,---,0.00,VWS V14.01,2013-05-24 23:06:00,
2013-05-24 18:07:00,73.8,50.5,30.18,East,79,4.0,8.0,44,0.00,,---,0.00,VWS V14.01,2013-05-24 23:07:00,
2013-05-24 18:09:00,73.7,49.8,30.18,ESE,103,3.0,8.0,43,0.00,,---,0.00,VWS V14.01,2013-05-24 23:09:00,
2013-05-24 18:10:00,73.7,50.5,30.18,East,98,2.0,8.0,44,0.00,,---,0.00,VWS V14.01,2013-05-24 23:10:00,
2013-05-24 18:11:00,73.7,50.5,30.18,NNE,23,2.0,8.0,44,0.00,,---,0.00,VWS V14.01,2013-05-24 23:11:00,
2013-05-24 18:12:00,73.6,50.4,30.18,NNE,15,2.0,8.0,44,0.00,,---,0.00,VWS V14.01,2013-05-24 23:12:00,
2013-05-24 18:14:00,73.7,51.1,30.18,East,80,6.0,8.0,45,0.00,,---,0.00,VWS V14.01,2013-05-24 23:14:00,
2013-05-24 18:15:00,73.6,50.4,30.18,NNE,28,5.0,8.0,44,0.00,,---,0.00,VWS V14.01,2013-05-24 23:15:00,
2013-05-24 18:16:00,73.6,50.4,30.18,North,357,2.0,3.0,44,0.00,,---,0.00,VWS V14.01,2013-05-24 23:16:00,
2013-05-24 18:17:00,73.6,51.6,30.18,ENE,65,1.0,4.0,46,0.00,,---,0.00,VWS V14.01,2013-05-24 23:17:00,
2013-05-24 18:19:00,73.6,51.0,30.18,NE,37,1.0,4.0,45,0.00,,---,0.00,VWS V14.01,2013-05-24 23:19:00,
2013-05-24 18:20:00,73.6,51.0,30.18,ENE,59,2.0,4.0,45,0.00,,---,0.00,VWS V14.01,2013-05-24 23:20:00,
2013-05-24 18:22:00,73.5,50.9,30.18,North,8,3.0,5.0,45,0.00,,---,0.00,VWS V14.01,2013-05-24 23:22:00,
2013-05-24 18:23:00,73.5,50.9,30.18,East,87,5.0,5.0,45,0.00,,---,0.00,VWS V14.01,2013-05-24 23:23:00,
2013-05-24 18:25:00,73.4,51.4,30.18,East,98,1.0,5.0,46,0.00,,---,0.00,VWS V14.01,2013-05-24 23:25:00,
2013-05-24 18:26:00,73.4,51.4,30.17,East,86,1.0,5.0,46,0.00,,---,0.00,VWS V14.01,2013-05-24 23:26:00,
2013-05-24 18:27:00,73.4,51.4,30.17,North,354,2.0,5.0,46,0.00,,---,0.00,VWS V14.01,2013-05-24 23:27:00,
2013-05-24 18:28:00,73.4,51.4,30.17,North,349,1.0,5.0,46,0.00,,---,0.00,VWS V14.01,2013-05-24 23:28:00,
2013-05-24 18:30:00,73.4,52.0,30.17,East,82,8.0,8.0,47,0.00,,---,0.00,VWS V14.01,2013-05-24 23:30:00,
2013-05-24 18:31:00,73.2,51.2,30.17,NE,38,2.0,3.0,46,0.00,,---,0.00,VWS V14.01,2013-05-24 23:31:00,
2013-05-24 18:32:00,73.1,51.1,30.18,NE,49,4.0,6.0,46,0.00,,---,0.00,VWS V14.01,2013-05-24 23:32:00,
2013-05-24 18:33:00,73.0,51.0,30.18,North,350,3.0,6.0,46,0.00,,---,0.00,VWS V14.01,2013-05-24 23:33:00,
2013-05-24 18:35:00,72.8,51.4,30.18,East,79,5.0,8.0,47,0.00,,---,0.00,VWS V14.01,2013-05-24 23:35:00,
2013-05-24 18:36:00,72.7,51.3,30.18,NE,37,2.0,8.0,47,0.00,,---,0.00,VWS V14.01,2013-05-24 23:36:00,
2013-05-24 18:37:00,72.7,51.3,30.18,NNE,14,2.0,8.0,47,0.00,,---,0.00,VWS V14.01,2013-05-24 23:37:00,
2013-05-24 18:38:00,72.6,51.2,30.18,NE,48,2.0,8.0,47,0.00,,---,0.00,VWS V14.01,2013-05-24 23:38:00,
2013-05-24 18:40:00,72.5,51.2,30.18,NE,53,1.0,8.0,47,0.00,,---,0.00,VWS V14.01,2013-05-24 23:40:00,
2013-05-24 18:41:00,72.4,51.0,30.18,ENE,58,4.0,12.0,47,0.00,,---,0.00,VWS V14.01,2013-05-24 23:41:00,
2013-05-24 18:42:00,72.4,51.6,30.17,North,349,1.0,12.0,48,0.00,,---,0.00,VWS V14.01,2013-05-24 23:42:00,
2013-05-24 18:43:00,72.4,51.6,30.17,NE,51,4.0,12.0,48,0.00,,---,0.00,VWS V14.01,2013-05-24 23:43:00,
2013-05-24 18:45:00,72.3,51.5,30.17,North,353,2.0,12.0,48,0.00,,---,0.00,VWS V14.01,2013-05-24 23:45:00,
2013-05-24 18:46:00,72.3,52.1,30.17,ENE,60,3.0,3.0,49,0.00,,---,0.00,VWS V14.01,2013-05-24 23:46:00,
2013-05-24 18:47:00,72.2,52.0,30.17,ESE,112,2.0,5.0,49,0.00,,---,0.00,VWS V14.01,2013-05-24 23:47:00,
2013-05-24 18:48:00,72.2,52.0,30.17,NNW,344,2.0,5.0,49,0.00,,---,0.00,VWS V14.01,2013-05-24 23:48:00,
2013-05-24 18:50:00,72.1,51.9,30.17,NNE,17,2.0,6.0,49,0.00,,---,0.00,VWS V14.01,2013-05-24 23:50:00,
2013-05-24 18:51:00,72.0,51.8,30.17,NNE,21,2.0,8.0,49,0.00,,---,0.00,VWS V14.01,2013-05-24 23:51:00,
2013-05-24 18:52:00,72.0,51.8,30.17,ENE,66,4.0,8.0,49,0.00,,---,0.00,VWS V14.01,2013-05-24 23:52:00,
2013-05-24 18:53:00,71.9,51.7,30.17,North,354,1.0,8.0,49,0.00,,---,0.00,VWS V14.01,2013-05-24 23:53:00,
2013-05-24 18:55:00,71.9,52.8,30.17,NE,34,2.0,8.0,51,0.00,,---,0.00,VWS V14.01,2013-05-24 23:55:00,
2013-05-24 18:56:00,71.8,52.2,30.17,NNE,31,2.0,8.0,50,0.00,,---,0.00,VWS V14.01,2013-05-24 23:56:00,
2013-05-24 18:57:00,71.8,52.2,30.17,NNW,333,3.0,8.0,50,0.00,,---,0.00,VWS V14.01,2013-05-24 23:57:00,
2013-05-24 18:58:00,71.8,52.2,30.17,ENE,73,3.0,8.0,50,0.00,,---,0.00,VWS V14.01,2013-05-24 23:58:00,
2013-05-24 19:00:00,71.7,52.1,30.17,NNW,332,1.0,8.0,50,0.00,,---,0.00,VWS V14.01,2013-05-25 00:00:00,
2013-05-24 19:01:00,71.6,52.0,30.17,NE,38,1.0,2.0,50,0.00,,---,0.00,VWS V14.01,2013-05-25 00:01:00,
2013-05-24 19:02:00,71.6,52.0,30.18,NNE,21,1.0,2.0,50,0.00,,---,0.00,VWS V14.01,2013-05-25 00:02:00,
2013-05-24 19:03:00,71.5,52.4,30.18,North,356,3.0,5.0,51,0.00,,---,0.00,VWS V14.01,2013-05-25 00:03:00,
2013-05-24 19:05:00,71.4,51.8,30.18,North,356,2.0,5.0,50,0.00,,---,0.00,VWS V14.01,2013-05-25 00:05:00,
2013-05-24 19:06:00,71.4,52.3,30.18,North,356,0.0,5.0,51,0.00,,---,0.00,VWS V14.01,2013-05-25 00:06:00,
2013-05-24 19:07:00,71.4,52.3,30.18,East,96,3.0,5.0,51,0.00,,---,0.00,VWS V14.01,2013-05-25 00:07:00,
2013-05-24 19:08:00,71.3,51.7,30.18,ENE,57,2.0,6.0,50,0.00,,---,0.00,VWS V14.01,2013-05-25 00:08:00,
2013-05-24 19:10:00,71.3,52.8,30.18,North,353,0.0,6.0,52,0.00,,---,0.00,VWS V14.01,2013-05-25 00:10:00,
2013-05-24 19:11:00,71.2,52.7,30.18,NNW,343,0.0,6.0,52,0.00,,---,0.00,VWS V14.01,2013-05-25 00:11:00,
2013-05-24 19:12:00,71.2,52.7,30.18,NNW,343,0.0,6.0,52,0.00,,---,0.00,VWS V14.01,2013-05-25 00:12:00,
2013-05-24 19:13:00,71.1,52.6,30.18,East,91,2.0,6.0,52,0.00,,---,0.00,VWS V14.01,2013-05-25 00:13:00,
2013-05-24 19:14:00,71.1,52.6,30.18,East,85,1.0,6.0,52,0.00,,---,0.00,VWS V14.01,2013-05-25 00:14:00,
2013-05-24 19:15:00,71.0,52.5,30.18,East,80,1.0,6.0,52,0.00,,---,0.00,VWS V14.01,2013-05-25 00:15:00,
2013-05-24 19:16:00,71.0,52.5,30.19,ENE,73,0.0,3.0,52,0.00,,---,0.00,VWS V14.01,2013-05-25 00:16:00,
2013-05-24 19:17:00,70.9,52.4,30.19,East,91,1.0,4.0,52,0.00,,---,0.00,VWS V14.01,2013-05-25 00:17:00,
2013-05-24 19:18:00,70.9,52.4,30.19,East,90,0.0,4.0,52,0.00,,---,0.00,VWS V14.01,2013-05-25 00:18:00,
2013-05-24 19:19:00,70.8,52.3,30.19,East,90,1.0,4.0,52,0.00,,---,0.00,VWS V14.01,2013-05-25 00:19:00,
2013-05-24 19:20:00,70.8,52.3,30.19,ENE,74,1.0,4.0,52,0.00,,---,0.00,VWS V14.01,2013-05-25 00:20:00,
2013-05-24 19:22:00,70.7,52.2,30.19,ENE,73,1.0,4.0,52,0.00,,---,0.00,VWS V14.01,2013-05-25 00:22:00,
2013-05-24 19:23:00,70.7,52.8,30.19,East,92,1.0,4.0,53,0.00,,---,0.00,VWS V14.01,2013-05-25 00:23:00,
2013-05-24 19:24:00,70.6,52.7,30.18,North,350,1.0,4.0,53,0.00,,---,0.00,VWS V14.01,2013-05-25 00:24:00,
2013-05-24 19:25:00,70.5,52.0,30.19,ENE,72,1.0,4.0,52,0.00,,---,0.00,VWS V14.01,2013-05-25 00:25:00,
2013-05-24 19:27:00,70.5,52.6,30.19,East,84,4.0,4.0,53,0.00,,---,0.00,VWS V14.01,2013-05-25 00:27:00,
2013-05-24 19:28:00,70.4,52.0,30.18,North,352,1.0,4.0,52,0.00,,---,0.00,VWS V14.01,2013-05-25 00:28:00,
2013-05-24 19:29:00,70.4,52.0,30.18,North,353,1.0,4.0,52,0.00,,---,0.00,VWS V14.01,2013-05-25 00:29:00,
2013-05-24 19:30:00,70.3,51.9,30.18,ENE,59,2.0,4.0,52,0.00,,---,0.00,VWS V14.01,2013-05-25 00:30:00,
2013-05-24 19:32:00,70.2,52.3,30.18,NE,41,1.0,2.0,53,0.00,,---,0.00,VWS V14.01,2013-05-25 00:32:00,
2013-05-24 19:33:00,70.1,51.7,30.18,NNW,344,2.0,5.0,52,0.00,,---,0.00,VWS V14.01,2013-05-25 00:33:00,
2013-05-24 19:34:00,70.1,51.7,30.19,North,350,2.0,5.0,52,0.00,,---,0.00,VWS V14.01,2013-05-25 00:34:00,
2013-05-24 19:36:00,70.0,52.1,30.18,NNW,332,0.0,5.0,53,0.00,,---,0.00,VWS V14.01,2013-05-25 00:36:00,
2013-05-24 19:37:00,69.9,52.0,30.18,NNW,340,2.0,5.0,53,0.00,,---,0.00,VWS V14.01,2013-05-25 00:37:00,
2013-05-24 19:38:00,69.9,52.0,30.18,NNW,342,1.0,5.0,53,0.00,,---,0.00,VWS V14.01,2013-05-25 00:38:00,
2013-05-24 19:39:00,69.8,51.9,30.18,NNW,342,2.0,5.0,53,0.00,,---,0.00,VWS V14.01,2013-05-25 00:39:00,
2013-05-24 19:41:00,69.7,51.8,30.19,NNW,344,1.0,5.0,53,0.00,,---,0.00,VWS V14.01,2013-05-25 00:41:00,
2013-05-24 19:42:00,69.7,51.8,30.19,ENE,77,3.0,5.0,53,0.00,,---,0.00,VWS V14.01,2013-05-25 00:42:00,
2013-05-24 19:43:00,69.6,51.7,30.19,NNW,346,1.0,5.0,53,0.00,,---,0.00,VWS V14.01,2013-05-25 00:43:00,
2013-05-24 19:44:00,69.6,51.7,30.19,ENE,67,2.0,5.0,53,0.00,,---,0.00,VWS V14.01,2013-05-25 00:44:00,
2013-05-24 19:46:00,69.5,51.6,30.19,North,1,1.0,1.0,53,0.00,,---,0.00,VWS V14.01,2013-05-25 00:46:00,
2013-05-24 19:48:00,69.4,52.0,30.19,North,1,0.0,1.0,54,0.00,,---,0.00,VWS V14.01,2013-05-25 00:48:00,
2013-05-24 19:49:00,69.3,52.0,30.19,North,1,0.0,1.0,54,0.00,,---,0.00,VWS V14.01,2013-05-25 00:49:00,
2013-05-24 19:51:00,69.1,51.8,30.19,North,1,0.0,1.0,54,0.00,,---,0.00,VWS V14.01,2013-05-25 00:51:00,
2013-05-24 19:53:00,68.9,51.6,30.19,NE,51,1.0,2.0,54,0.00,,---,0.00,VWS V14.01,2013-05-25 00:53:00,
2013-05-24 19:54:00,68.9,52.1,30.19,NE,44,0.0,2.0,55,0.00,,---,0.00,VWS V14.01,2013-05-25 00:54:00,
2013-05-24 19:55:00,68.8,52.0,30.19,NE,44,0.0,2.0,55,0.00,,---,0.00,VWS V14.01,2013-05-25 00:55:00,
2013-05-24 19:56:00,68.8,52.0,30.19,NE,39,0.0,2.0,55,0.00,,---,0.00,VWS V14.01,2013-05-25 00:56:00,
2013-05-24 19:58:00,68.6,51.8,30.20,NE,39,0.0,2.0,55,0.00,,---,0.00,VWS V14.01,2013-05-25 00:58:00,
2013-05-24 19:59:00,68.5,52.2,30.20,NE,39,0.0,2.0,56,0.00,,---,0.00,VWS V14.01,2013-05-25 00:59:00,
2013-05-24 20:00:00,68.4,52.1,30.20,NW,306,1.0,2.0,56,0.00,,---,0.00,VWS V14.01,2013-05-25 01:00:00,
2013-05-24 20:02:00,68.2,51.9,30.19,NW,306,0.0,0.0,56,0.00,,---,0.00,VWS V14.01,2013-05-25 01:02:00,
2013-05-24 20:03:00,68.1,51.8,30.20,NW,306,0.0,0.0,56,0.00,,---,0.00,VWS V14.01,2013-05-25 01:03:00,
2013-05-24 20:04:00,68.1,52.3,30.20,NW,306,0.0,0.0,57,0.00,,---,0.00,VWS V14.01,2013-05-25 01:04:00,
2013-05-24 20:05:00,68.0,52.2,30.20,NW,305,0.0,1.0,57,0.00,,---,0.00,VWS V14.01,2013-05-25 01:05:00,
2013-05-24 20:07:00,67.8,52.0,30.20,NW,306,0.0,1.0,57,0.00,,---,0.00,VWS V14.01,2013-05-25 01:07:00,
2013-05-24 20:08:00,67.7,51.9,30.20,NW,305,0.0,1.0,57,0.00,,---,0.00,VWS V14.01,2013-05-25 01:08:00,
2013-05-24 20:09:00,67.6,51.8,30.20,NNW,340,0.0,1.0,57,0.00,,---,0.00,VWS V14.01,2013-05-25 01:09:00,
2013-05-24 20:10:00,67.5,51.8,30.20,NNW,340,1.0,1.0,57,0.00,,---,0.00,VWS V14.01,2013-05-25 01:10:00,
2013-05-24 20:12:00,67.4,51.7,30.20,NNW,340,0.0,1.0,57,0.00,,---,0.00,VWS V14.01,2013-05-25 01:12:00,
2013-05-24 20:13:00,67.4,51.7,30.20,NNW,340,0.0,1.0,57,0.00,,---,0.00,VWS V14.01,2013-05-25 01:13:00,
2013-05-24 20:14:00,67.3,51.6,30.20,NNW,340,0.0,1.0,57,0.00,,---,0.00,VWS V14.01,2013-05-25 01:14:00,
2013-05-24 20:15:00,67.3,51.6,30.20,NNW,340,0.0,1.0,57,0.00,,---,0.00,VWS V14.01,2013-05-25 01:15:00,
2013-05-24 20:17:00,67.1,51.8,30.20,NNW,340,0.0,0.0,58,0.00,,---,0.00,VWS V14.01,2013-05-25 01:17:00,
2013-05-24 20:18:00,67.1,51.8,30.20,NNW,342,1.0,1.0,58,0.00,,---,0.00,VWS V14.01,2013-05-25 01:18:00,
2013-05-24 20:19:00,67.0,51.8,30.20,NNW,347,0.0,2.0,58,0.00,,---,0.00,VWS V14.01,2013-05-25 01:19:00,
2013-05-24 20:20:00,66.9,51.7,30.20,NNW,346,0.0,2.0,58,0.00,,---,0.00,VWS V14.01,2013-05-25 01:20:00,
2013-05-24 20:23:00,66.8,51.6,30.20,East,89,0.0,3.0,58,0.00,,---,0.00,VWS V14.01,2013-05-25 01:23:00,
2013-05-24 20:24:00,66.8,51.6,30.20,East,87,1.0,3.0,58,0.00,,---,0.00,VWS V14.01,2013-05-25 01:24:00,
2013-05-24 20:25:00,66.7,51.9,30.20,East,87,0.0,3.0,59,0.00,,---,0.00,VWS V14.01,2013-05-25 01:25:00,
2013-05-24 20:28:00,66.6,51.8,30.20,East,87,0.0,3.0,59,0.00,,---,0.00,VWS V14.01,2013-05-25 01:28:00,
2013-05-24 20:29:00,66.6,51.8,30.20,East,87,0.0,3.0,59,0.00,,---,0.00,VWS V14.01,2013-05-25 01:29:00,
2013-05-24 20:30:00,66.6,51.8,30.20,East,87,1.0,3.0,59,0.00,,---,0.00,VWS V14.01,2013-05-25 01:30:00,
2013-05-24 20:33:00,66.4,51.7,30.20,East,87,0.0,2.0,59,0.00,,---,0.00,VWS V14.01,2013-05-25 01:33:00,
2013-05-24 20:34:00,66.4,51.7,30.20,East,87,0.0,2.0,59,0.00,,---,0.00,VWS V14.01,2013-05-25 01:34:00,
2013-05-24 20:35:00,66.4,51.7,30.20,East,86,1.0,2.0,59,0.00,,---,0.00,VWS V14.01,2013-05-25 01:35:00,
2013-05-24 20:38:00,66.2,51.9,30.20,East,87,0.0,2.0,60,0.00,,---,0.00,VWS V14.01,2013-05-25 01:38:00,
2013-05-24 20:39:00,66.1,51.8,30.20,East,87,0.0,2.0,60,0.00,,---,0.00,VWS V14.01,2013-05-25 01:39:00,
2013-05-24 20:40:00,66.1,51.8,30.20,East,87,0.0,2.0,60,0.00,,---,0.00,VWS V14.01,2013-05-25 01:40:00,
2013-05-24 20:41:00,66.0,51.7,30.20,East,87,0.0,2.0,60,0.00,,---,0.00,VWS V14.01,2013-05-25 01:41:00,
2013-05-24 20:43:00,65.8,51.5,30.20,East,87,0.0,2.0,60,0.00,,---,0.00,VWS V14.01,2013-05-25 01:43:00,
2013-05-24 20:44:00,65.8,51.5,30.20,East,87,0.0,2.0,60,0.00,,---,0.00,VWS V14.01,2013-05-25 01:44:00,
2013-05-24 20:45:00,65.6,51.8,30.20,East,87,0.0,2.0,61,0.00,,---,0.00,VWS V14.01,2013-05-25 01:45:00,
2013-05-24 20:46:00,65.6,51.8,30.20,East,87,0.0,0.0,61,0.00,,---,0.00,VWS V14.01,2013-05-25 01:46:00,
2013-05-24 20:49:00,65.3,52.0,30.20,East,82,0.0,2.0,62,0.00,,---,0.00,VWS V14.01,2013-05-25 01:49:00,
2013-05-24 20:50:00,65.2,51.9,30.20,East,82,0.0,2.0,62,0.00,,---,0.00,VWS V14.01,2013-05-25 01:50:00,
2013-05-24 20:51:00,65.2,51.9,30.20,East,83,0.0,2.0,62,0.00,,---,0.00,VWS V14.01,2013-05-25 01:51:00,
2013-05-24 20:54:00,65.1,51.8,30.20,East,82,0.0,2.0,62,0.00,,---,0.00,VWS V14.01,2013-05-25 01:54:00,
2013-05-24 20:55:00,65.1,51.8,30.20,East,83,0.0,2.0,62,0.00,,---,0.00,VWS V14.01,2013-05-25 01:55:00,
2013-05-24 20:56:00,65.0,51.7,30.20,East,82,0.0,2.0,62,0.00,,---,0.00,VWS V14.01,2013-05-25 01:56:00,
2013-05-24 20:59:00,65.0,51.7,30.20,East,82,0.0,2.0,62,0.00,,---,0.00,VWS V14.01,2013-05-25 01:59:00,
2013-05-24 21:00:00,64.9,52.0,30.20,East,82,0.0,2.0,63,0.00,,---,0.00,VWS V14.01,2013-05-25 02:00:00,
2013-05-24 21:01:00,64.9,52.0,30.20,East,83,0.0,1.0,63,0.00,,---,0.00,VWS V14.01,2013-05-25 02:01:00,
2013-05-24 21:04:00,64.9,52.5,30.21,East,83,0.0,1.0,64,0.00,,---,0.00,VWS V14.01,2013-05-25 02:04:00,
2013-05-24 21:05:00,64.8,52.3,30.20,East,82,0.0,1.0,64,0.00,,---,0.00,VWS V14.01,2013-05-25 02:05:00,
2013-05-24 21:06:00,64.7,52.3,30.20,East,82,0.0,1.0,64,0.00,,---,0.00,VWS V14.01,2013-05-25 02:06:00,
2013-05-24 21:07:00,64.7,52.3,30.21,East,83,0.0,1.0,64,0.00,,---,0.00,VWS V14.01,2013-05-25 02:07:00,
2013-05-24 21:09:00,64.6,51.7,30.21,East,82,0.0,1.0,63,0.00,,---,0.00,VWS V14.01,2013-05-25 02:09:00,
2013-05-24 21:10:00,64.5,52.1,30.21,NE,37,0.0,1.0,64,0.00,,---,0.00,VWS V14.01,2013-05-25 02:10:00,
2013-05-24 21:11:00,64.5,52.1,30.21,NE,37,0.0,1.0,64,0.00,,---,0.00,VWS V14.01,2013-05-25 02:11:00,
2013-05-24 21:12:00,64.4,52.0,30.21,NE,37,0.0,1.0,64,0.00,,---,0.00,VWS V14.01,2013-05-25 02:12:00,
2013-05-24 21:14:00,64.2,51.8,30.21,NE,37,0.0,1.0,64,0.00,,---,0.00,VWS V14.01,2013-05-25 02:14:00,
2013-05-24 21:15:00,64.2,51.8,30.21,NE,37,0.0,1.0,64,0.00,,---,0.00,VWS V14.01,2013-05-25 02:15:00,
2013-05-24 21:16:00,64.1,52.1,30.21,NE,35,0.0,0.0,65,0.00,,---,0.00,VWS V14.01,2013-05-25 02:16:00,
2013-05-24 21:17:00,64.1,52.1,30.21,NE,35,0.0,0.0,65,0.00,,---,0.00,VWS V14.01,2013-05-25 02:17:00,
2013-05-24 21:19:00,64.0,52.0,30.21,NE,35,0.0,0.0,65,0.00,,---,0.00,VWS V14.01,2013-05-25 02:19:00,
2013-05-24 21:20:00,64.0,52.0,30.21,NNE,32,0.0,0.0,65,0.00,,---,0.00,VWS V14.01,2013-05-25 02:20:00,
2013-05-24 21:21:00,63.9,51.9,30.21,NNE,32,0.0,1.0,65,0.00,,---,0.00,VWS V14.01,2013-05-25 02:21:00,
2013-05-24 21:23:00,63.8,51.8,30.21,NNE,32,0.0,1.0,65,0.00,,---,0.00,VWS V14.01,2013-05-25 02:23:00,
2013-05-24 21:24:00,63.8,51.8,30.21,NNE,32,0.0,1.0,65,0.00,,---,0.00,VWS V14.01,2013-05-25 02:24:00,
2013-05-24 21:25:00,63.8,51.8,30.21,NNE,32,0.0,1.0,65,0.00,,---,0.00,VWS V14.01,2013-05-25 02:25:00,
2013-05-24 21:26:00,63.7,51.7,30.21,NNE,32,0.0,1.0,65,0.00,,---,0.00,VWS V14.01,2013-05-25 02:26:00,
2013-05-24 21:28:00,63.7,51.7,30.21,NNE,32,0.0,1.0,65,0.00,,---,0.00,VWS V14.01,2013-05-25 02:28:00,
2013-05-24 21:29:00,63.6,52.0,30.21,NNE,32,0.0,1.0,66,0.00,,---,0.00,VWS V14.01,2013-05-25 02:29:00,
2013-05-24 21:30:00,63.6,52.0,30.21,NNE,32,0.0,1.0,66,0.00,,---,0.00,VWS V14.01,2013-05-25 02:30:00,
2013-05-24 21:31:00,63.6,52.0,30.21,NNE,32,0.0,0.0,66,0.00,,---,0.00,VWS V14.01,2013-05-25 02:31:00,
2013-05-24 21:33:00,63.5,52.0,30.21,NNE,32,0.0,0.0,66,0.00,,---,0.00,VWS V14.01,2013-05-25 02:33:00,
2013-05-24 21:34:00,63.3,51.8,30.22,NNE,32,0.0,0.0,66,0.00,,---,0.00,VWS V14.01,2013-05-25 02:34:00,
2013-05-24 21:35:00,63.3,51.8,30.21,NNE,32,0.0,0.0,66,0.00,,---,0.00,VWS V14.01,2013-05-25 02:35:00,
2013-05-24 21:36:00,63.3,52.2,30.21,NNE,32,0.0,0.0,67,0.00,,---,0.00,VWS V14.01,2013-05-25 02:36:00,
2013-05-24 21:37:00,63.2,52.1,30.22,NNE,32,0.0,0.0,67,0.00,,---,0.00,VWS V14.01,2013-05-25 02:37:00,
2013-05-24 21:38:00,63.2,52.1,30.21,NNE,32,0.0,0.0,67,0.00,,---,0.00,VWS V14.01,2013-05-25 02:38:00,
2013-05-24 21:39:00,63.0,51.9,30.22,NNE,32,0.0,0.0,67,0.00,,---,0.00,VWS V14.01,2013-05-25 02:39:00,
2013-05-24 21:41:00,62.9,51.8,30.22,NNE,32,0.0,0.0,67,0.00,,---,0.00,VWS V14.01,2013-05-25 02:41:00,
2013-05-24 21:42:00,62.8,52.1,30.22,NNE,32,0.0,0.0,68,0.00,,---,0.00,VWS V14.01,2013-05-25 02:42:00,
2013-05-24 21:43:00,62.8,52.1,30.22,NNE,32,0.0,0.0,68,0.00,,---,0.00,VWS V14.01,2013-05-25 02:43:00,
2013-05-24 21:45:00,62.6,51.9,30.22,NNE,32,0.0,0.0,68,0.00,,---,0.00,VWS V14.01,2013-05-25 02:45:00,
2013-05-24 21:46:00,62.6,52.3,30.22,NNE,32,0.0,0.0,69,0.00,,---,0.00,VWS V14.01,2013-05-25 02:46:00,
2013-05-24 21:47:00,62.5,52.2,30.22,NNE,32,0.0,0.0,69,0.00,,---,0.00,VWS V14.01,2013-05-25 02:47:00,
2013-05-24 21:48:00,62.4,52.1,30.22,NNE,32,0.0,0.0,69,0.00,,---,0.00,VWS V14.01,2013-05-25 02:48:00,
2013-05-24 21:50:00,62.3,52.0,30.22,NNE,32,0.0,0.0,69,0.00,,---,0.00,VWS V14.01,2013-05-25 02:50:00,
2013-05-24 21:51:00,62.3,52.0,30.22,NNE,32,0.0,0.0,69,0.00,,---,0.00,VWS V14.01,2013-05-25 02:51:00,
2013-05-24 21:52:00,62.2,51.9,30.23,NNE,32,0.0,0.0,69,0.00,,---,0.00,VWS V14.01,2013-05-25 02:52:00,
2013-05-24 21:53:00,62.1,51.8,30.22,NNE,32,0.0,0.0,69,0.00,,---,0.00,VWS V14.01,2013-05-25 02:53:00,
2013-05-24 21:55:00,62.0,52.1,30.23,NNE,32,0.0,0.0,70,0.00,,---,0.00,VWS V14.01,2013-05-25 02:55:00,
2013-05-24 21:56:00,61.9,52.0,30.23,NNE,32,0.0,0.0,70,0.00,,---,0.00,VWS V14.01,2013-05-25 02:56:00,
2013-05-24 21:57:00,61.8,51.9,30.23,NNE,32,0.0,0.0,70,0.00,,---,0.00,VWS V14.01,2013-05-25 02:57:00,
2013-05-24 21:58:00,61.8,51.9,30.23,NNE,32,0.0,0.0,70,0.00,,---,0.00,VWS V14.01,2013-05-25 02:58:00,
2013-05-24 22:00:00,61.7,52.2,30.23,NNE,32,0.0,0.0,71,0.00,,---,0.00,VWS V14.01,2013-05-25 03:00:00,
2013-05-24 22:01:00,61.6,52.1,30.23,NNE,32,0.0,0.0,71,0.00,,---,0.00,VWS V14.01,2013-05-25 03:01:00,
2013-05-24 22:02:00,61.6,52.1,30.23,NNE,32,0.0,0.0,71,0.00,,---,0.00,VWS V14.01,2013-05-25 03:02:00,
2013-05-24 22:03:00,61.5,52.4,30.23,NNE,32,0.0,0.0,72,0.00,,---,0.00,VWS V14.01,2013-05-25 03:03:00,
2013-05-24 22:05:00,61.4,52.3,30.23,NNE,32,0.0,0.0,72,0.00,,---,0.00,VWS V14.01,2013-05-25 03:05:00,
2013-05-24 22:06:00,61.3,52.2,30.23,NNE,32,0.0,0.0,72,0.00,,---,0.00,VWS V14.01,2013-05-25 03:06:00,
2013-05-24 22:07:00,61.3,52.2,30.23,NNE,32,0.0,0.0,72,0.00,,---,0.00,VWS V14.01,2013-05-25 03:07:00,
2013-05-24 22:08:00,61.2,52.5,30.23,NNE,32,0.0,0.0,73,0.00,,---,0.00,VWS V14.01,2013-05-25 03:08:00,
2013-05-24 22:10:00,61.1,52.4,30.23,NNE,32,0.0,0.0,73,0.00,,---,0.00,VWS V14.01,2013-05-25 03:10:00,
2013-05-24 22:11:00,61.0,52.3,30.23,NNE,32,0.0,0.0,73,0.00,,---,0.00,VWS V14.01,2013-05-25 03:11:00,
2013-05-24 22:12:00,60.9,52.2,30.23,NNE,32,0.0,0.0,73,0.00,,---,0.00,VWS V14.01,2013-05-25 03:12:00,
2013-05-24 22:13:00,60.9,52.2,30.23,NNE,32,0.0,0.0,73,0.00,,---,0.00,VWS V14.01,2013-05-25 03:13:00,
2013-05-24 22:15:00,60.7,52.0,30.23,NNE,32,0.0,0.0,73,0.00,,---,0.00,VWS V14.01,2013-05-25 03:15:00,
2013-05-24 22:16:00,60.6,51.9,30.23,NNE,32,0.0,0.0,73,0.00,,---,0.00,VWS V14.01,2013-05-25 03:16:00,
2013-05-24 22:17:00,60.6,51.9,30.23,NNE,32,0.0,0.0,73,0.00,,---,0.00,VWS V14.01,2013-05-25 03:17:00,
2013-05-24 22:18:00,60.6,51.9,30.23,NNE,32,0.0,0.0,73,0.00,,---,0.00,VWS V14.01,2013-05-25 03:18:00,
2013-05-24 22:20:00,60.4,52.1,30.23,NNE,32,0.0,0.0,74,0.00,,---,0.00,VWS V14.01,2013-05-25 03:20:00,
2013-05-24 22:22:00,60.3,52.0,30.23,NNE,32,0.0,0.0,74,0.00,,---,0.00,VWS V14.01,2013-05-25 03:22:00,
2013-05-24 22:23:00,60.3,52.0,30.23,NNE,32,0.0,0.0,74,0.00,,---,0.00,VWS V14.01,2013-05-25 03:23:00,
2013-05-24 22:25:00,60.2,51.9,30.23,NNE,32,0.0,0.0,74,0.00,,---,0.00,VWS V14.01,2013-05-25 03:25:00,
2013-05-24 22:27:00,60.1,51.8,30.23,NNE,32,0.0,0.0,74,0.00,,---,0.00,VWS V14.01,2013-05-25 03:27:00,
2013-05-24 22:28:00,60.1,51.8,30.23,NNE,32,0.0,0.0,74,0.00,,---,0.00,VWS V14.01,2013-05-25 03:28:00,
2013-05-24 22:29:00,60.1,51.8,30.23,NNE,32,0.0,0.0,74,0.00,,---,0.00,VWS V14.01,2013-05-25 03:29:00,
2013-05-24 22:31:00,60.0,51.7,30.23,NNE,32,0.0,0.0,74,0.00,,---,0.00,VWS V14.01,2013-05-25 03:31:00,
2013-05-24 22:32:00,60.0,52.1,30.23,NNE,32,0.0,0.0,75,0.00,,---,0.00,VWS V14.01,2013-05-25 03:32:00,
2013-05-24 22:33:00,60.0,52.1,30.23,NNE,32,0.0,0.0,75,0.00,,---,0.00,VWS V14.01,2013-05-25 03:33:00,
2013-05-24 22:34:00,59.9,52.0,30.23,NNE,32,0.0,0.0,75,0.00,,---,0.00,VWS V14.01,2013-05-25 03:34:00,
2013-05-24 22:36:00,59.9,52.0,30.23,NNE,32,0.0,0.0,75,0.00,,---,0.00,VWS V14.01,2013-05-25 03:36:00,
2013-05-24 22:37:00,59.9,52.0,30.24,NNE,32,0.0,0.0,75,0.00,,---,0.00,VWS V14.01,2013-05-25 03:37:00,
2013-05-24 22:38:00,59.8,51.9,30.23,NNE,32,0.0,0.0,75,0.00,,---,0.00,VWS V14.01,2013-05-25 03:38:00,
2013-05-24 22:39:00,59.8,51.9,30.24,NNE,32,0.0,0.0,75,0.00,,---,0.00,VWS V14.01,2013-05-25 03:39:00,
2013-05-24 22:41:00,59.8,52.2,30.23,NNE,32,0.0,0.0,76,0.00,,---,0.00,VWS V14.01,2013-05-25 03:41:00,
2013-05-24 22:42:00,59.7,52.5,30.24,NNE,32,0.0,0.0,77,0.00,,---,0.00,VWS V14.01,2013-05-25 03:42:00,
2013-05-24 22:44:00,59.7,52.5,30.23,NNE,32,0.0,0.0,77,0.00,,---,0.00,VWS V14.01,2013-05-25 03:44:00,
2013-05-24 22:46:00,59.6,52.4,30.23,NNE,32,0.0,0.0,77,0.00,,---,0.00,VWS V14.01,2013-05-25 03:46:00,
2013-05-24 22:47:00,59.6,52.4,30.23,NNE,32,0.0,0.0,77,0.00,,---,0.00,VWS V14.01,2013-05-25 03:47:00,
2013-05-24 22:48:00,59.6,52.4,30.23,NNE,32,0.0,0.0,77,0.00,,---,0.00,VWS V14.01,2013-05-25 03:48:00,
2013-05-24 22:49:00,59.5,52.3,30.23,NNE,32,0.0,0.0,77,0.00,,---,0.00,VWS V14.01,2013-05-25 03:49:00,
2013-05-24 22:50:00,59.5,52.3,30.23,NNE,32,0.0,0.0,77,0.00,,---,0.00,VWS V14.01,2013-05-25 03:50:00,
2013-05-24 22:51:00,59.4,52.2,30.23,NNE,32,0.0,0.0,77,0.00,,---,0.00,VWS V14.01,2013-05-25 03:51:00,
2013-05-24 22:53:00,59.3,52.1,30.23,NNE,32,0.0,0.0,77,0.00,,---,0.00,VWS V14.01,2013-05-25 03:53:00,
2013-05-24 22:54:00,59.3,52.1,30.23,NNE,32,0.0,0.0,77,0.00,,---,0.00,VWS V14.01,2013-05-25 03:54:00,
2013-05-24 22:55:00,59.2,52.0,30.23,NNE,32,0.0,0.0,77,0.00,,---,0.00,VWS V14.01,2013-05-25 03:55:00,
2013-05-24 22:56:00,59.1,51.9,30.23,NNE,32,0.0,0.0,77,0.00,,---,0.00,VWS V14.01,2013-05-25 03:56:00,
2013-05-24 22:58:00,59.1,52.3,30.23,NNE,32,0.0,0.0,78,0.00,,---,0.00,VWS V14.01,2013-05-25 03:58:00,
2013-05-24 22:59:00,59.1,52.3,30.23,NNE,32,0.0,0.0,78,0.00,,---,0.00,VWS V14.01,2013-05-25 03:59:00,
2013-05-24 23:00:00,59.0,52.2,30.23,NNE,32,0.0,0.0,78,0.00,,---,0.00,VWS V14.01,2013-05-25 04:00:00,
2013-05-24 23:01:00,59.0,52.2,30.23,NNE,32,0.0,0.0,78,0.00,,---,0.00,VWS V14.01,2013-05-25 04:01:00,
2013-05-24 23:06:00,58.9,52.4,30.23,NNE,32,0.0,0.0,79,0.00,,---,0.00,VWS V14.01,2013-05-25 04:06:00,
2013-05-24 23:11:00,58.6,52.1,30.23,NNE,32,0.0,0.0,79,0.00,,---,0.00,VWS V14.01,2013-05-25 04:11:00,
2013-05-24 23:16:00,58.4,52.3,30.23,NNE,32,0.0,0.0,80,0.00,,---,0.00,VWS V14.01,2013-05-25 04:16:00,
2013-05-24 23:17:00,58.3,52.2,30.23,NNE,32,0.0,0.0,80,0.00,,---,0.00,VWS V14.01,2013-05-25 04:17:00,
2013-05-24 23:21:00,58.2,52.1,30.23,NNE,32,0.0,0.0,80,0.00,,---,0.00,VWS V14.01,2013-05-25 04:21:00,
2013-05-24 23:22:00,58.2,52.1,30.23,NNE,32,0.0,0.0,80,0.00,,---,0.00,VWS V14.01,2013-05-25 04:22:00,
2013-05-24 23:26:00,58.0,51.9,30.23,NNE,32,0.0,0.0,80,0.00,,---,0.00,VWS V14.01,2013-05-25 04:26:00,
2013-05-24 23:27:00,58.0,52.2,30.23,NNE,32,0.0,0.0,81,0.00,,---,0.00,VWS V14.01,2013-05-25 04:27:00,
2013-05-24 23:31:00,58.0,51.9,30.22,NNE,32,0.0,0.0,80,0.00,,---,0.00,VWS V14.01,2013-05-25 04:31:00,
2013-05-24 23:32:00,57.9,51.8,30.22,NNE,32,0.0,0.0,80,0.00,,---,0.00,VWS V14.01,2013-05-25 04:32:00,
2013-05-24 23:36:00,57.9,52.1,30.22,NNE,32,0.0,1.0,81,0.00,,---,0.00,VWS V14.01,2013-05-25 04:36:00,
2013-05-24 23:37:00,57.9,51.8,30.22,NNE,32,0.0,1.0,80,0.00,,---,0.00,VWS V14.01,2013-05-25 04:37:00,
2013-05-24 23:41:00,58.1,52.0,30.22,NNE,32,0.0,1.0,80,0.00,,---,0.00,VWS V14.01,2013-05-25 04:41:00,
2013-05-24 23:42:00,58.1,52.0,30.22,NNE,30,0.0,1.0,80,0.00,,---,0.00,VWS V14.01,2013-05-25 04:42:00,
2013-05-24 23:46:00,58.3,51.8,30.22,ENE,73,0.0,0.0,79,0.00,,---,0.00,VWS V14.01,2013-05-25 04:46:00,
2013-05-24 23:47:00,58.4,51.9,30.22,ENE,73,0.0,0.0,79,0.00,,---,0.00,VWS V14.01,2013-05-25 04:47:00,
2013-05-24 23:51:00,58.4,51.9,30.22,ENE,73,0.0,1.0,79,0.00,,---,0.00,VWS V14.01,2013-05-25 04:51:00,
2013-05-24 23:52:00,58.4,51.9,30.22,ENE,73,0.0,1.0,79,0.00,,---,0.00,VWS V14.01,2013-05-25 04:52:00,
2013-05-24 23:56:00,58.5,51.7,30.22,ENE,73,0.0,1.0,78,0.00,,---,0.00,VWS V14.01,2013-05-25 04:56:00,
2013-05-24 23:57:00,58.6,51.8,30.22,ENE,73,1.0,1.0,78,0.00,,---,0.00,VWS V14.01,2013-05-25 04:57:00,
2013-05-24 23:58:00,58.6,51.8,30.22,ENE,73,0.0,1.0,78,0.00,,---,0.00,VWS V14.01,2013-05-25 04:58:00,